Wetterdaten: Mittwoch, 13.03.2019
Datum Zeit Temp. Aussen Temp. o. S. +5cm Feuchte Auss Luftdruck Regen Sonnenschein Regendauer Solar Windben Empfang
13.03.2019 00:00 4,8 C 3,9 C 3,3 C 91 % 1002,3 hPa 0,0 l/m 0 min 0 min 0 W/m 19,3 km/h (3 Bft) 97,87 %
13.03.2019 00:02 4,8 C 3,9 C 3,3 C 91 % 1002,4 hPa 0,0 l/m 0 min 0 min 0 W/m 9,7 km/h (2 Bft) 100,00 %
13.03.2019 00:04 4,8 C 3,9 C 3,3 C 91 % 1002,4 hPa 0,0 l/m 0 min 0 min 0 W/m 19,3 km/h (3 Bft) 95,74 %
13.03.2019 00:07 4,8 C 3,9 C 3,3 C 91 % 1002,6 hPa 0,0 l/m 0 min 0 min 0 W/m 16,1 km/h (3 Bft) 97,40 %
13.03.2019 00:08 4,8 C 3,9 C 3,3 C 91 % 1002,6 hPa 0,0 l/m 0 min 0 min 0 W/m 6,4 km/h (2 Bft) 95,65 %
13.03.2019 00:10 4,8 C 3,9 C 3,3 C 91 % 1002,6 hPa 0,0 l/m 0 min 0 min 0 W/m 19,3 km/h (3 Bft) 97,83 %
13.03.2019 00:12 4,8 C 3,9 C 3,3 C 91 % 1002,6 hPa 0,0 l/m 0 min 0 min 0 W/m 16,1 km/h (3 Bft) 97,87 %
13.03.2019 00:14 4,8 C 4,4 C 3,3 C 91 % 1002,7 hPa 0,0 l/m 0 min 0 min 0 W/m 16,1 km/h (3 Bft) 97,87 %
13.03.2019 00:16 4,8 C 4,4 C 3,3 C 91 % 1002,5 hPa 0,0 l/m 0 min 0 min 0 W/m 9,7 km/h (2 Bft) 97,87 %
13.03.2019 00:18 4,8 C 4,4 C 3,3 C 90 % 1002,7 hPa 0,0 l/m 0 min 0 min 0 W/m 29,0 km/h (5 Bft) 97,87 %
13.03.2019 00:20 4,8 C 4,4 C 3,3 C 90 % 1002,7 hPa 0,0 l/m 0 min 0 min 0 W/m 29,0 km/h (5 Bft) 95,74 %
13.03.2019 00:22 4,8 C 4,4 C 3,3 C 90 % 1002,7 hPa 0,0 l/m 0 min 0 min 0 W/m 22,5 km/h (4 Bft) 97,83 %
13.03.2019 00:24 4,8 C 4,4 C 3,3 C 90 % 1002,8 hPa 0,0 l/m 0 min 0 min 0 W/m 19,3 km/h (3 Bft) 97,87 %
13.03.2019 00:26 4,8 C 4,4 C 3,3 C 90 % 1002,8 hPa 0,0 l/m 0 min 0 min 0 W/m 16,1 km/h (3 Bft) 97,87 %
13.03.2019 00:28 4,8 C 4,4 C 3,3 C 90 % 1002,8 hPa 0,0 l/m 0 min 0 min 0 W/m 25,7 km/h (4 Bft) 95,74 %
13.03.2019 00:30 4,8 C 4,4 C 3,3 C 90 % 1002,9 hPa 0,0 l/m 0 min 0 min 0 W/m 16,1 km/h (3 Bft) 97,87 %
13.03.2019 00:32 4,8 C 4,4 C 3,3 C 90 % 1003,0 hPa 0,0 l/m 0 min 0 min 0 W/m 19,3 km/h (3 Bft) 97,83 %
13.03.2019 00:34 4,8 C 4,4 C 3,3 C 90 % 1003,0 hPa 0,0 l/m 0 min 0 min 0 W/m 22,5 km/h (4 Bft) 97,87 %
13.03.2019 00:36 4,8 C 4,4 C 3,3 C 90 % 1003,0 hPa 0,0 l/m 0 min 0 min 0 W/m 12,9 km/h (3 Bft) 97,87 %
13.03.2019 00:38 4,8 C 4,4 C 3,3 C 90 % 1003,1 hPa 0,0 l/m 0 min 0 min 0 W/m 22,5 km/h (4 Bft) 97,87 %
13.03.2019 00:40 4,8 C 4,4 C 3,3 C 90 % 1003,1 hPa 0,0 l/m 0 min 0 min 0 W/m 12,9 km/h (3 Bft) 100,00 %
13.03.2019 00:42 4,8 C 4,4 C 3,3 C 90 % 1003,1 hPa 0,0 l/m 0 min 0 min 0 W/m 12,9 km/h (3 Bft) 100,00 %
13.03.2019 00:44 4,9 C 4,4 C 3,3 C 90 % 1003,1 hPa 0,0 l/m 0 min 0 min 0 W/m 16,1 km/h (3 Bft) 97,83 %
13.03.2019 00:46 4,9 C 4,4 C 3,3 C 90 % 1003,2 hPa 0,0 l/m 0 min 0 min 0 W/m 12,9 km/h (3 Bft) 93,62 %
13.03.2019 00:48 4,9 C 4,4 C 3,3 C 90 % 1003,2 hPa 0,0 l/m 0 min 0 min 0 W/m 16,1 km/h (3 Bft) 100,00 %
13.03.2019 00:50 4,9 C 4,4 C 3,3 C 90 % 1003,3 hPa 0,0 l/m 0 min 0 min 0 W/m 29,0 km/h (5 Bft) 97,87 %
13.03.2019 00:52 4,9 C 4,4 C 3,3 C 90 % 1003,2 hPa 0,0 l/m 0 min 0 min 0 W/m 16,1 km/h (3 Bft) 97,87 %
13.03.2019 00:54 4,9 C 4,4 C 3,3 C 89 % 1003,5 hPa 0,0 l/m 0 min 0 min 0 W/m 35,4 km/h (5 Bft) 95,74 %
13.03.2019 00:56 4,9 C 4,4 C 3,3 C 89 % 1003,4 hPa 0,0 l/m 0 min 0 min 0 W/m 32,2 km/h (5 Bft) 100,00 %
13.03.2019 00:58 4,9 C 4,4 C 3,3 C 89 % 1003,4 hPa 0,0 l/m 0 min 0 min 0 W/m 29,0 km/h (5 Bft) 97,87 %
13.03.2019 01:00 4,9 C 4,4 C 3,3 C 89 % 1003,5 hPa 0,0 l/m 0 min 0 min 0 W/m 29,0 km/h (5 Bft) 97,87 %
13.03.2019 01:02 4,9 C 4,4 C 3,3 C 89 % 1003,3 hPa 0,0 l/m 0 min 0 min 0 W/m 22,5 km/h (4 Bft) 97,87 %
13.03.2019 01:04 4,9 C 4,4 C 3,3 C 88 % 1003,3 hPa 0,0 l/m 0 min 0 min 0 W/m 16,1 km/h (3 Bft) 97,14 %
13.03.2019 01:06 4,9 C 4,4 C 3,3 C 88 % 1003,3 hPa 0,0 l/m 0 min 0 min 0 W/m 9,7 km/h (2 Bft) 96,15 %
13.03.2019 01:08 4,8 C 4,4 C 3,3 C 88 % 1003,3 hPa 0,0 l/m 0 min 0 min 0 W/m 25,7 km/h (4 Bft) 97,87 %
13.03.2019 01:10 4,8 C 4,4 C 3,3 C 88 % 1003,3 hPa 0,0 l/m 0 min 0 min 0 W/m 16,1 km/h (3 Bft) 95,74 %
13.03.2019 01:12 4,8 C 4,4 C 3,3 C 88 % 1003,3 hPa 0,0 l/m 0 min 0 min 0 W/m 16,1 km/h (3 Bft) 97,87 %
13.03.2019 01:14 4,8 C 4,4 C 3,3 C 88 % 1003,4 hPa 0,0 l/m 0 min 0 min 0 W/m 12,9 km/h (3 Bft) 97,87 %
13.03.2019 01:16 4,8 C 4,4 C 3,3 C 88 % 1003,3 hPa 0,0 l/m 0 min 0 min 0 W/m 12,9 km/h (3 Bft) 97,83 %
13.03.2019 01:18 4,9 C 4,4 C 3,3 C 87 % 1003,4 hPa 0,0 l/m 0 min 0 min 0 W/m 22,5 km/h (4 Bft) 95,74 %
13.03.2019 01:20 4,8 C 4,4 C 3,3 C 87 % 1003,4 hPa 0,0 l/m 0 min 0 min 0 W/m 19,3 km/h (3 Bft) 97,87 %
13.03.2019 01:22 4,9 C 4,4 C 3,3 C 87 % 1003,4 hPa 0,0 l/m 0 min 0 min 0 W/m 9,7 km/h (2 Bft) 97,87 %
13.03.2019 01:24 4,9 C 4,4 C 3,3 C 87 % 1003,4 hPa 0,0 l/m 0 min 0 min 0 W/m 29,0 km/h (5 Bft) 97,87 %
13.03.2019 01:26 4,9 C 4,4 C 3,3 C 87 % 1003,4 hPa 0,0 l/m 0 min 0 min 0 W/m 12,9 km/h (3 Bft) 97,87 %
13.03.2019 01:28 4,9 C 4,4 C 3,3 C 87 % 1003,3 hPa 0,0 l/m 0 min 0 min 0 W/m 16,1 km/h (3 Bft) 97,83 %
13.03.2019 01:30 4,9 C 4,4 C 3,3 C 87 % 1003,3 hPa 0,0 l/m 0 min 0 min 0 W/m 16,1 km/h (3 Bft) 97,87 %
13.03.2019 01:32 4,9 C 4,4 C 3,9 C 87 % 1003,4 hPa 0,0 l/m 0 min 0 min 0 W/m 9,7 km/h (2 Bft) 97,87 %
13.03.2019 01:34 4,9 C 4,4 C 3,9 C 87 % 1003,3 hPa 0,0 l/m 0 min 0 min 0 W/m 25,7 km/h (4 Bft) 97,87 %
13.03.2019 01:36 4,9 C 4,4 C 3,9 C 87 % 1003,3 hPa 0,0 l/m 0 min 0 min 0 W/m 19,3 km/h (3 Bft) 97,87 %
13.03.2019 01:38 4,9 C 4,4 C 3,9 C 87 % 1003,4 hPa 0,0 l/m 0 min 0 min 0 W/m 12,9 km/h (3 Bft) 97,87 %
13.03.2019 01:40 4,9 C 4,4 C 3,9 C 87 % 1003,3 hPa 0,0 l/m 0 min 0 min 0 W/m 22,5 km/h (4 Bft) 97,83 %
13.03.2019 01:42 4,9 C 4,4 C 3,9 C 87 % 1003,4 hPa 0,0 l/m 0 min 0 min 0 W/m 22,5 km/h (4 Bft) 100,00 %
13.03.2019 01:44 4,9 C 4,4 C 3,9 C 87 % 1003,4 hPa 0,0 l/m 0 min 0 min 0 W/m 16,1 km/h (3 Bft) 97,87 %
13.03.2019 01:46 4,9 C 4,4 C 3,9 C 87 % 1003,4 hPa 0,0 l/m 0 min 0 min 0 W/m 22,5 km/h (4 Bft) 100,00 %
13.03.2019 01:48 4,9 C 4,4 C 3,9 C 87 % 1003,4 hPa 0,0 l/m 0 min 0 min 0 W/m 12,9 km/h (3 Bft) 100,00 %
13.03.2019 01:50 4,9 C 4,4 C 3,9 C 87 % 1003,3 hPa 0,0 l/m 0 min 0 min 0 W/m 9,7 km/h (2 Bft) 100,00 %
13.03.2019 01:52 4,9 C 4,4 C 3,9 C 87 % 1003,3 hPa 0,0 l/m 0 min 0 min 0 W/m 19,3 km/h (3 Bft) 100,00 %
13.03.2019 01:54 4,9 C 4,4 C 3,9 C 87 % 1003,4 hPa 0,0 l/m 0 min 0 min 0 W/m 22,5 km/h (4 Bft) 100,00 %
13.03.2019 01:56 4,9 C 4,4 C 3,9 C 87 % 1003,4 hPa 0,0 l/m 0 min 0 min 0 W/m 16,1 km/h (3 Bft) 100,00 %
13.03.2019 01:58 4,9 C 4,4 C 3,9 C 86 % 1003,4 hPa 0,0 l/m 0 min 0 min 0 W/m 22,5 km/h (4 Bft) 100,00 %
13.03.2019 02:00 4,9 C 4,4 C 3,9 C 86 % 1003,3 hPa 0,0 l/m 0 min 0 min 0 W/m 12,9 km/h (3 Bft) 97,87 %
13.03.2019 02:02 4,9 C 4,4 C 3,9 C 86 % 1003,3 hPa 0,0 l/m 0 min 0 min 0 W/m 19,3 km/h (3 Bft) 95,65 %
13.03.2019 02:04 5,0 C 4,4 C 3,9 C 86 % 1003,3 hPa 0,0 l/m 0 min 0 min 0 W/m 19,3 km/h (3 Bft) 97,87 %
13.03.2019 02:06 5,0 C 4,4 C 3,9 C 86 % 1003,3 hPa 0,0 l/m 0 min 0 min 0 W/m 22,5 km/h (4 Bft) 95,74 %
13.03.2019 02:08 5,0 C 4,4 C 3,9 C 86 % 1003,3 hPa 0,0 l/m 0 min 0 min 0 W/m 19,3 km/h (3 Bft) 95,74 %
13.03.2019 02:10 5,0 C 4,4 C 3,9 C 86 % 1003,3 hPa 0,0 l/m 0 min 0 min 0 W/m 22,5 km/h (4 Bft) 97,87 %
13.03.2019 02:12 5,0 C 4,4 C 3,9 C 86 % 1003,2 hPa 0,0 l/m 0 min 0 min 0 W/m 19,3 km/h (3 Bft) 97,87 %
13.03.2019 02:14 5,1 C 4,4 C 3,9 C 86 % 1003,2 hPa 0,0 l/m 0 min 0 min 0 W/m 22,5 km/h (4 Bft) 97,83 %
13.03.2019 02:16 5,1 C 5,0 C 3,9 C 86 % 1003,2 hPa 0,0 l/m 0 min 0 min 0 W/m 29,0 km/h (5 Bft) 97,87 %
13.03.2019 02:18 5,1 C 5,0 C 4,4 C 86 % 1003,1 hPa 0,0 l/m 0 min 0 min 0 W/m 29,0 km/h (5 Bft) 97,87 %
13.03.2019 02:20 5,1 C 5,0 C 4,4 C 86 % 1003,3 hPa 0,0 l/m 0 min 0 min 0 W/m 16,1 km/h (3 Bft) 97,87 %
13.03.2019 02:22 5,2 C 5,0 C 4,4 C 86 % 1003,4 hPa 0,0 l/m 0 min 0 min 0 W/m 19,3 km/h (3 Bft) 97,87 %
13.03.2019 02:24 5,2 C 5,0 C 4,4 C 86 % 1003,4 hPa 0,0 l/m 0 min 0 min 0 W/m 38,6 km/h (5 Bft) 97,87 %
13.03.2019 02:26 5,2 C 5,0 C 4,4 C 86 % 1003,3 hPa 0,0 l/m 0 min 0 min 0 W/m 16,1 km/h (3 Bft) 95,65 %
13.03.2019 02:28 5,2 C 5,0 C 4,4 C 86 % 1003,3 hPa 0,0 l/m 0 min 0 min 0 W/m 22,5 km/h (4 Bft) 97,87 %
13.03.2019 02:30 5,2 C 5,0 C 4,4 C 86 % 1003,3 hPa 0,0 l/m 0 min 0 min 0 W/m 16,1 km/h (3 Bft) 95,74 %
13.03.2019 02:32 5,2 C 5,0 C 4,4 C 86 % 1003,2 hPa 0,0 l/m 0 min 0 min 0 W/m 25,7 km/h (4 Bft) 97,87 %
13.03.2019 02:34 5,3 C 5,0 C 4,4 C 86 % 1003,2 hPa 0,0 l/m 0 min 0 min 0 W/m 25,7 km/h (4 Bft) 95,74 %
13.03.2019 02:36 5,3 C 5,0 C 4,4 C 86 % 1003,3 hPa 0,0 l/m 0 min 0 min 0 W/m 25,7 km/h (4 Bft) 97,83 %
13.03.2019 02:38 5,3 C 5,0 C 4,4 C 86 % 1003,2 hPa 0,0 l/m 0 min 0 min 0 W/m 25,7 km/h (4 Bft) 97,87 %
13.03.2019 02:40 5,3 C 5,0 C 4,4 C 86 % 1003,1 hPa 0,0 l/m 0 min 0 min 0 W/m 35,4 km/h (5 Bft) 97,87 %
13.03.2019 02:42 5,3 C 5,0 C 4,4 C 86 % 1003,1 hPa 0,0 l/m 0 min 0 min 0 W/m 29,0 km/h (5 Bft) 97,87 %
13.03.2019 02:44 5,3 C 5,0 C 4,4 C 86 % 1003,0 hPa 0,0 l/m 0 min 0 min 0 W/m 29,0 km/h (5 Bft) 93,62 %
13.03.2019 02:46 5,3 C 5,0 C 4,4 C 86 % 1003,0 hPa 0,0 l/m 0 min 0 min 0 W/m 29,0 km/h (5 Bft) 100,00 %
13.03.2019 02:48 5,3 C 5,0 C 4,4 C 85 % 1003,1 hPa 0,0 l/m 0 min 0 min 0 W/m 32,2 km/h (5 Bft) 100,00 %
13.03.2019 02:50 5,3 C 5,0 C 4,4 C 85 % 1002,9 hPa 0,0 l/m 0 min 0 min 0 W/m 25,7 km/h (4 Bft) 100,00 %
13.03.2019 02:52 5,3 C 5,0 C 4,4 C 85 % 1003,1 hPa 0,0 l/m 0 min 0 min 0 W/m 32,2 km/h (5 Bft) 97,87 %
13.03.2019 02:54 5,3 C 5,0 C 4,4 C 86 % 1003,0 hPa 0,0 l/m 0 min 0 min 0 W/m 25,7 km/h (4 Bft) 97,87 %
13.03.2019 02:56 5,3 C 5,0 C 4,4 C 86 % 1003,0 hPa 0,0 l/m 0 min 0 min 0 W/m 22,5 km/h (4 Bft) 97,87 %
13.03.2019 02:58 5,3 C 5,0 C 4,4 C 86 % 1003,0 hPa 0,0 l/m 0 min 0 min 0 W/m 16,1 km/h (3 Bft) 100,00 %
13.03.2019 03:00 5,3 C 5,0 C 4,4 C 86 % 1003,1 hPa 0,0 l/m 0 min 0 min 0 W/m 32,2 km/h (5 Bft) 100,00 %
13.03.2019 03:02 5,4 C 5,0 C 4,4 C 86 % 1003,0 hPa 0,0 l/m 0 min 0 min 0 W/m 32,2 km/h (5 Bft) 97,87 %
13.03.2019 03:04 5,4 C 5,0 C 4,4 C 86 % 1003,1 hPa 0,0 l/m 0 min 0 min 0 W/m 45,1 km/h (6 Bft) 100,00 %
13.03.2019 03:06 5,4 C 5,0 C 4,4 C 86 % 1003,0 hPa 0,0 l/m 0 min 0 min 0 W/m 29,0 km/h (5 Bft) 100,00 %
13.03.2019 03:08 5,4 C 5,0 C 4,4 C 86 % 1003,0 hPa 0,0 l/m 0 min 0 min 0 W/m 29,0 km/h (5 Bft) 100,00 %
13.03.2019 03:10 5,4 C 5,0 C 4,4 C 86 % 1003,0 hPa 0,0 l/m 0 min 0 min 0 W/m 16,1 km/h (3 Bft) 100,00 %
13.03.2019 03:12 5,4 C 5,0 C 4,4 C 86 % 1003,0 hPa 0,0 l/m 0 min 0 min 0 W/m 29,0 km/h (5 Bft) 100,00 %
13.03.2019 03:14 5,4 C 5,0 C 4,4 C 86 % 1002,9 hPa 0,0 l/m 0 min 0 min 0 W/m 41,8 km/h (6 Bft) 95,74 %
13.03.2019 03:16 5,4 C 4,4 C 3,9 C 86 % 1003,0 hPa 0,0 l/m 0 min 0 min 0 W/m 16,1 km/h (3 Bft) 97,87 %
13.03.2019 03:18 5,4 C 4,4 C 3,9 C 86 % 1002,9 hPa 0,0 l/m 0 min 0 min 0 W/m 25,7 km/h (4 Bft) 97,87 %
13.03.2019 03:20 5,3 C 4,4 C 3,9 C 86 % 1002,9 hPa 0,0 l/m 0 min 0 min 0 W/m 29,0 km/h (5 Bft) 100,00 %
13.03.2019 03:22 5,3 C 4,4 C 3,9 C 86 % 1002,9 hPa 0,0 l/m 0 min 0 min 0 W/m 22,5 km/h (4 Bft) 97,87 %
13.03.2019 03:24 5,3 C 4,4 C 3,9 C 86 % 1002,9 hPa 0,0 l/m 0 min 0 min 0 W/m 25,7 km/h (4 Bft) 97,83 %
13.03.2019 03:26 5,3 C 4,4 C 3,9 C 86 % 1002,9 hPa 0,0 l/m 0 min 0 min 0 W/m 22,5 km/h (4 Bft) 97,87 %
13.03.2019 03:28 5,3 C 4,4 C 3,9 C 86 % 1002,8 hPa 0,0 l/m 0 min 0 min 0 W/m 32,2 km/h (5 Bft) 97,87 %
13.03.2019 03:30 5,2 C 4,4 C 3,9 C 86 % 1002,8 hPa 0,0 l/m 0 min 0 min 0 W/m 25,7 km/h (4 Bft) 93,62 %
13.03.2019 03:32 5,2 C 4,4 C 3,9 C 86 % 1002,8 hPa 0,0 l/m 0 min 0 min 0 W/m 16,1 km/h (3 Bft) 93,62 %
13.03.2019 03:34 5,2 C 4,4 C 3,9 C 86 % 1003,0 hPa 0,0 l/m 0 min 0 min 0 W/m 25,7 km/h (4 Bft) 95,74 %
13.03.2019 03:36 5,2 C 4,4 C 3,9 C 86 % 1002,9 hPa 0,0 l/m 0 min 0 min 0 W/m 35,4 km/h (5 Bft) 95,65 %
13.03.2019 03:38 5,2 C 4,4 C 3,9 C 86 % 1002,8 hPa 0,0 l/m 0 min 0 min 0 W/m 22,5 km/h (4 Bft) 93,62 %
13.03.2019 03:40 5,2 C 4,4 C 3,9 C 86 % 1002,9 hPa 0,0 l/m 0 min 0 min 0 W/m 25,7 km/h (4 Bft) 95,74 %
13.03.2019 03:42 5,2 C 4,4 C 3,9 C 86 % 1002,8 hPa 0,0 l/m 0 min 0 min 0 W/m 22,5 km/h (4 Bft) 95,74 %
13.03.2019 03:44 5,2 C 4,4 C 3,9 C 86 % 1002,7 hPa 0,0 l/m 0 min 0 min 0 W/m 29,0 km/h (5 Bft) 95,74 %
13.03.2019 03:46 5,2 C 5,0 C 4,4 C 86 % 1002,8 hPa 0,0 l/m 0 min 0 min 0 W/m 29,0 km/h (5 Bft) 95,74 %
13.03.2019 03:48 5,2 C 5,0 C 4,4 C 86 % 1002,7 hPa 0,0 l/m 0 min 0 min 0 W/m 25,7 km/h (4 Bft) 95,65 %
13.03.2019 03:50 5,2 C 5,0 C 4,4 C 86 % 1002,9 hPa 0,0 l/m 0 min 0 min 0 W/m 51,5 km/h (7 Bft) 95,74 %
13.03.2019 03:52 5,3 C 5,0 C 4,4 C 86 % 1002,7 hPa 0,0 l/m 0 min 0 min 0 W/m 22,5 km/h (4 Bft) 95,74 %
13.03.2019 03:54 5,3 C 5,0 C 4,4 C 86 % 1002,7 hPa 0,0 l/m 0 min 0 min 0 W/m 32,2 km/h (5 Bft) 95,74 %
13.03.2019 03:56 5,3 C 5,0 C 4,4 C 86 % 1002,6 hPa 0,0 l/m 0 min 0 min 0 W/m 32,2 km/h (5 Bft) 95,74 %
13.03.2019 03:58 5,3 C 5,0 C 4,4 C 86 % 1002,8 hPa 0,0 l/m 0 min 0 min 0 W/m 35,4 km/h (5 Bft) 95,74 %
13.03.2019 04:00 5,3 C 5,0 C 4,4 C 86 % 1003,0 hPa 0,0 l/m 0 min 0 min 0 W/m 41,8 km/h (6 Bft) 95,65 %
13.03.2019 04:02 5,3 C 5,0 C 4,4 C 86 % 1002,6 hPa 0,0 l/m 0 min 0 min 0 W/m 25,7 km/h (4 Bft) 100,00 %
13.03.2019 04:04 5,3 C 5,0 C 4,4 C 86 % 1002,7 hPa 0,0 l/m 0 min 0 min 0 W/m 19,3 km/h (3 Bft) 93,62 %
13.03.2019 04:06 5,4 C 5,0 C 4,4 C 86 % 1002,7 hPa 0,0 l/m 0 min 0 min 0 W/m 29,0 km/h (5 Bft) 100,00 %
13.03.2019 04:08 5,4 C 5,0 C 4,4 C 86 % 1002,6 hPa 0,0 l/m 0 min 0 min 0 W/m 25,7 km/h (4 Bft) 100,00 %
13.03.2019 04:10 5,4 C 5,0 C 4,4 C 86 % 1002,7 hPa 0,0 l/m 0 min 0 min 0 W/m 25,7 km/h (4 Bft) 95,65 %
13.03.2019 04:12 5,4 C 5,0 C 4,4 C 85 % 1002,7 hPa 0,0 l/m 0 min 0 min 0 W/m 35,4 km/h (5 Bft) 97,87 %
13.03.2019 04:14 5,4 C 5,0 C 4,4 C 85 % 1002,7 hPa 0,0 l/m 0 min 0 min 0 W/m 38,6 km/h (5 Bft) 97,87 %
13.03.2019 04:16 5,4 C 5,0 C 4,4 C 85 % 1002,6 hPa 0,0 l/m 0 min 0 min 0 W/m 32,2 km/h (5 Bft) 100,00 %
13.03.2019 04:18 5,4 C 5,0 C 4,4 C 85 % 1002,7 hPa 0,0 l/m 0 min 0 min 0 W/m 29,0 km/h (5 Bft) 100,00 %
13.03.2019 04:20 5,4 C 5,0 C 3,9 C 85 % 1002,7 hPa 0,0 l/m 0 min 0 min 0 W/m 22,5 km/h (4 Bft) 97,87 %
13.03.2019 04:22 5,4 C 5,0 C 3,9 C 85 % 1002,7 hPa 0,0 l/m 0 min 0 min 0 W/m 29,0 km/h (5 Bft) 97,83 %
13.03.2019 04:24 5,4 C 5,0 C 3,9 C 85 % 1002,6 hPa 0,0 l/m 0 min 0 min 0 W/m 35,4 km/h (5 Bft) 97,87 %
13.03.2019 04:26 5,4 C 5,0 C 4,4 C 85 % 1002,7 hPa 0,0 l/m 0 min 0 min 0 W/m 29,0 km/h (5 Bft) 97,87 %
13.03.2019 04:28 5,4 C 5,0 C 4,4 C 85 % 1002,6 hPa 0,0 l/m 0 min 0 min 0 W/m 25,7 km/h (4 Bft) 97,87 %
13.03.2019 04:30 5,4 C 5,0 C 4,4 C 85 % 1002,4 hPa 0,0 l/m 0 min 0 min 0 W/m 19,3 km/h (3 Bft) 100,00 %
13.03.2019 04:32 5,4 C 5,0 C 4,4 C 85 % 1002,5 hPa 0,0 l/m 0 min 0 min 0 W/m 25,7 km/h (4 Bft) 100,00 %
13.03.2019 04:34 5,3 C 5,0 C 4,4 C 85 % 1002,5 hPa 0,0 l/m 0 min 0 min 0 W/m 29,0 km/h (5 Bft) 100,00 %
13.03.2019 04:36 5,4 C 5,0 C 4,4 C 85 % 1002,6 hPa 0,0 l/m 0 min 0 min 0 W/m 25,7 km/h (4 Bft) 100,00 %
13.03.2019 04:38 5,4 C 5,0 C 4,4 C 85 % 1002,6 hPa 0,0 l/m 0 min 0 min 0 W/m 25,7 km/h (4 Bft) 97,87 %
13.03.2019 04:40 5,4 C 5,0 C 4,4 C 85 % 1002,6 hPa 0,0 l/m 0 min 0 min 0 W/m 19,3 km/h (3 Bft) 100,00 %
13.03.2019 04:42 5,4 C 5,0 C 4,4 C 85 % 1002,6 hPa 0,0 l/m 0 min 0 min 0 W/m 25,7 km/h (4 Bft) 100,00 %
13.03.2019 04:44 5,4 C 5,0 C 4,4 C 85 % 1002,6 hPa 0,0 l/m 0 min 0 min 0 W/m 29,0 km/h (5 Bft) 100,00 %
13.03.2019 04:46 5,4 C 5,0 C 4,4 C 84 % 1002,6 hPa 0,0 l/m 0 min 0 min 0 W/m 35,4 km/h (5 Bft) 100,00 %
13.03.2019 04:48 5,4 C 5,0 C 4,4 C 84 % 1002,8 hPa 0,0 l/m 0 min 0 min 0 W/m 35,4 km/h (5 Bft) 93,62 %
13.03.2019 04:50 5,4 C 5,0 C 4,4 C 84 % 1002,7 hPa 0,0 l/m 0 min 0 min 0 W/m 25,7 km/h (4 Bft) 97,87 %
13.03.2019 04:52 5,4 C 5,0 C 4,4 C 84 % 1002,7 hPa 0,0 l/m 0 min 0 min 0 W/m 32,2 km/h (5 Bft) 97,87 %
13.03.2019 04:54 5,4 C 5,0 C 4,4 C 84 % 1002,7 hPa 0,0 l/m 0 min 0 min 0 W/m 25,7 km/h (4 Bft) 97,87 %
13.03.2019 04:56 5,4 C 5,0 C 4,4 C 84 % 1002,7 hPa 0,0 l/m 0 min 0 min 0 W/m 32,2 km/h (5 Bft) 97,83 %
13.03.2019 04:58 5,4 C 5,0 C 4,4 C 84 % 1002,6 hPa 0,0 l/m 0 min 0 min 0 W/m 19,3 km/h (3 Bft) 97,87 %
13.03.2019 05:00 5,4 C 5,0 C 4,4 C 84 % 1002,6 hPa 0,0 l/m 0 min 0 min 0 W/m 29,0 km/h (5 Bft) 97,87 %
13.03.2019 05:02 5,4 C 5,0 C 4,4 C 84 % 1002,7 hPa 0,0 l/m 0 min 0 min 0 W/m 29,0 km/h (5 Bft) 95,74 %
13.03.2019 05:04 5,4 C 5,0 C 4,4 C 84 % 1002,8 hPa 0,0 l/m 0 min 0 min 0 W/m 25,7 km/h (4 Bft) 97,87 %
13.03.2019 05:05 5,4 C 5,0 C 4,4 C 84 % 1002,7 hPa 0,0 l/m 0 min 0 min 0 W/m 29,0 km/h (5 Bft) 100,00 %
13.03.2019 05:10 5,5 C 5,0 C 4,4 C 83 % 1002,7 hPa 0,0 l/m 0 min 0 min 0 W/m 41,8 km/h (6 Bft) 100,00 %
13.03.2019 05:12 5,5 C 5,0 C 4,4 C 83 % 1002,6 hPa 0,0 l/m 0 min 0 min 0 W/m 22,5 km/h (4 Bft) 90,91 %
13.03.2019 05:14 5,5 C 5,0 C 4,4 C 83 % 1002,7 hPa 0,0 l/m 0 min 0 min 0 W/m 45,1 km/h (6 Bft) 95,83 %
13.03.2019 05:20 5,6 C 5,0 C 4,4 C 83 % 1002,6 hPa 0,0 l/m 0 min 0 min 0 W/m 29,0 km/h (5 Bft) 100,00 %
13.03.2019 05:22 5,6 C 5,0 C 4,4 C 83 % 1002,6 hPa 0,0 l/m 0 min 0 min 0 W/m 35,4 km/h (5 Bft) 97,87 %
13.03.2019 05:24 5,6 C 5,0 C 4,4 C 83 % 1002,5 hPa 0,0 l/m 0 min 0 min 0 W/m 29,0 km/h (5 Bft) 93,62 %
13.03.2019 05:26 5,6 C 5,0 C 4,4 C 83 % 1002,5 hPa 0,0 l/m 0 min 0 min 0 W/m 29,0 km/h (5 Bft) 97,83 %
13.03.2019 05:28 5,6 C 5,0 C 4,4 C 83 % 1002,6 hPa 0,0 l/m 0 min 0 min 0 W/m 22,5 km/h (4 Bft) 97,87 %
13.03.2019 05:30 5,6 C 5,0 C 4,4 C 83 % 1002,5 hPa 0,0 l/m 0 min 0 min 0 W/m 22,5 km/h (4 Bft) 97,87 %
13.03.2019 05:32 5,6 C 5,0 C 4,4 C 83 % 1002,5 hPa 0,0 l/m 0 min 0 min 0 W/m 35,4 km/h (5 Bft) 100,00 %
13.03.2019 05:34 5,6 C 5,0 C 4,4 C 83 % 1002,7 hPa 0,0 l/m 0 min 0 min 0 W/m 25,7 km/h (4 Bft) 100,00 %
13.03.2019 05:36 5,6 C 5,0 C 4,4 C 83 % 1002,5 hPa 0,0 l/m 0 min 0 min 0 W/m 35,4 km/h (5 Bft) 97,87 %
13.03.2019 05:38 5,6 C 5,0 C 4,4 C 83 % 1002,6 hPa 0,0 l/m 0 min 0 min 0 W/m 19,3 km/h (3 Bft) 100,00 %
13.03.2019 05:40 5,6 C 5,0 C 4,4 C 83 % 1002,5 hPa 0,0 l/m 0 min 0 min 0 W/m 32,2 km/h (5 Bft) 97,87 %
13.03.2019 05:42 5,6 C 5,0 C 4,4 C 83 % 1002,4 hPa 0,0 l/m 0 min 0 min 0 W/m 38,6 km/h (5 Bft) 100,00 %
13.03.2019 05:44 5,6 C 5,0 C 4,4 C 83 % 1002,5 hPa 0,0 l/m 0 min 0 min 0 W/m 32,2 km/h (5 Bft) 97,87 %
13.03.2019 05:46 5,7 C 5,0 C 4,4 C 83 % 1002,6 hPa 0,0 l/m 0 min 0 min 0 W/m 25,7 km/h (4 Bft) 100,00 %
13.03.2019 05:48 5,7 C 5,0 C 4,4 C 83 % 1002,5 hPa 0,0 l/m 0 min 0 min 0 W/m 22,5 km/h (4 Bft) 100,00 %
13.03.2019 05:50 5,7 C 5,0 C 4,4 C 83 % 1002,7 hPa 0,0 l/m 0 min 0 min 0 W/m 22,5 km/h (4 Bft) 97,83 %
13.03.2019 05:52 5,7 C 5,6 C 4,4 C 83 % 1002,5 hPa 0,0 l/m 0 min 0 min 0 W/m 25,7 km/h (4 Bft) 100,00 %
13.03.2019 05:54 5,7 C 5,6 C 5,0 C 83 % 1002,6 hPa 0,0 l/m 0 min 0 min 0 W/m 51,5 km/h (7 Bft) 100,00 %
13.03.2019 05:56 5,7 C 5,6 C 5,0 C 83 % 1002,5 hPa 0,0 l/m 0 min 0 min 0 W/m 29,0 km/h (5 Bft) 97,87 %
13.03.2019 05:58 5,8 C 5,6 C 5,0 C 82 % 1002,5 hPa 0,0 l/m 0 min 0 min 0 W/m 41,8 km/h (6 Bft) 95,74 %
13.03.2019 06:00 5,8 C 5,6 C 5,0 C 82 % 1002,4 hPa 0,0 l/m 0 min 0 min 0 W/m 16,1 km/h (3 Bft) 97,87 %
13.03.2019 06:02 5,8 C 5,6 C 5,0 C 82 % 1002,5 hPa 0,0 l/m 0 min 0 min 0 W/m 22,5 km/h (4 Bft) 100,00 %
13.03.2019 06:04 5,8 C 5,6 C 5,0 C 82 % 1002,5 hPa 0,0 l/m 0 min 0 min 0 W/m 38,6 km/h (5 Bft) 100,00 %
13.03.2019 06:08 5,9 C 5,6 C 5,0 C 82 % 1002,4 hPa 0,0 l/m 0 min 0 min 0 W/m 48,3 km/h (6 Bft) 97,87 %
13.03.2019 06:10 5,9 C 5,6 C 5,0 C 82 % 1002,4 hPa 0,0 l/m 0 min 0 min 0 W/m 35,4 km/h (5 Bft) 97,87 %
13.03.2019 06:12 5,9 C 5,6 C 5,0 C 82 % 1002,4 hPa 0,0 l/m 0 min 0 min 0 W/m 38,6 km/h (5 Bft) 97,83 %
13.03.2019 06:14 5,9 C 5,6 C 5,0 C 81 % 1002,4 hPa 0,0 l/m 0 min 0 min 0 W/m 48,3 km/h (6 Bft) 95,74 %
13.03.2019 06:16 6,0 C 5,6 C 5,0 C 81 % 1002,5 hPa 0,0 l/m 0 min 0 min 0 W/m 41,8 km/h (6 Bft) 97,87 %
13.03.2019 06:18 6,0 C 5,6 C 5,0 C 81 % 1002,5 hPa 0,0 l/m 0 min 0 min 0 W/m 19,3 km/h (3 Bft) 95,74 %
13.03.2019 06:20 6,0 C 5,6 C 5,0 C 81 % 1002,4 hPa 0,0 l/m 0 min 0 min 0 W/m 22,5 km/h (4 Bft) 95,74 %
13.03.2019 06:22 6,0 C 5,6 C 5,0 C 81 % 1002,4 hPa 0,0 l/m 0 min 0 min 0 W/m 22,5 km/h (4 Bft) 97,87 %
13.03.2019 06:24 6,0 C 5,6 C 5,0 C 81 % 1002,4 hPa 0,0 l/m 0 min 0 min 0 W/m 32,2 km/h (5 Bft) 95,74 %
13.03.2019 06:26 6,0 C 5,6 C 5,0 C 81 % 1002,3 hPa 0,0 l/m 0 min 0 min 0 W/m 38,6 km/h (5 Bft) 97,83 %
13.03.2019 06:28 6,0 C 5,6 C 5,0 C 81 % 1002,3 hPa 0,0 l/m 0 min 0 min 0 W/m 29,0 km/h (5 Bft) 97,87 %
13.03.2019 06:30 6,0 C 5,6 C 5,0 C 81 % 1002,3 hPa 0,0 l/m 0 min 0 min 0 W/m 35,4 km/h (5 Bft) 97,87 %
13.03.2019 06:32 6,0 C 5,6 C 5,0 C 81 % 1002,3 hPa 0,0 l/m 0 min 0 min 0 W/m 38,6 km/h (5 Bft) 97,92 %
13.03.2019 06:34 6,0 C 5,6 C 5,0 C 81 % 1002,3 hPa 0,0 l/m 0 min 0 min 0 W/m 32,2 km/h (5 Bft) 97,87 %
13.03.2019 06:36 6,0 C 5,6 C 5,0 C 81 % 1002,3 hPa 0,0 l/m 0 min 0 min 0 W/m 38,6 km/h (5 Bft) 97,83 %
13.03.2019 06:38 6,0 C 5,6 C 5,0 C 81 % 1002,2 hPa 0,0 l/m 0 min 0 min 0 W/m 32,2 km/h (5 Bft) 97,92 %
13.03.2019 06:40 6,0 C 5,6 C 5,0 C 81 % 1002,3 hPa 0,0 l/m 0 min 0 min 0 W/m 38,6 km/h (5 Bft) 97,87 %
13.03.2019 06:42 6,0 C 5,6 C 5,0 C 81 % 1002,4 hPa 0,0 l/m 0 min 0 min 0 W/m 35,4 km/h (5 Bft) 97,87 %
13.03.2019 06:44 6,0 C 5,6 C 5,0 C 81 % 1002,3 hPa 0,0 l/m 0 min 0 min 0 W/m 32,2 km/h (5 Bft) 97,87 %
13.03.2019 06:46 6,0 C 5,6 C 5,0 C 81 % 1002,2 hPa 0,0 l/m 0 min 0 min 0 W/m 35,4 km/h (5 Bft) 97,83 %
13.03.2019 06:48 6,0 C 5,6 C 5,0 C 81 % 1002,3 hPa 0,0 l/m 0 min 0 min 0 W/m 25,7 km/h (4 Bft) 95,74 %
13.03.2019 06:50 6,0 C 5,6 C 5,0 C 81 % 1002,3 hPa 0,0 l/m 0 min 0 min 0 W/m 35,4 km/h (5 Bft) 97,87 %
13.03.2019 06:52 6,0 C 5,6 C 5,0 C 81 % 1002,3 hPa 0,0 l/m 0 min 0 min 0 W/m 32,2 km/h (5 Bft) 97,87 %
13.03.2019 06:54 6,0 C 5,6 C 5,0 C 81 % 1002,3 hPa 0,0 l/m 0 min 0 min 0 W/m 29,0 km/h (5 Bft) 97,87 %
13.03.2019 06:56 6,0 C 5,6 C 5,0 C 81 % 1002,3 hPa 0,0 l/m 0 min 0 min 0 W/m 45,1 km/h (6 Bft) 100,00 %
13.03.2019 06:58 6,1 C 5,6 C 5,0 C 81 % 1002,3 hPa 0,0 l/m 0 min 0 min 0 W/m 41,8 km/h (6 Bft) 100,00 %
13.03.2019 07:00 6,1 C 5,6 C 5,0 C 81 % 1002,4 hPa 0,0 l/m 0 min 0 min 0 W/m 32,2 km/h (5 Bft) 97,87 %
13.03.2019 07:02 6,1 C 5,6 C 5,0 C 81 % 1002,3 hPa 0,0 l/m 0 min 0 min 0 W/m 54,7 km/h (7 Bft) 97,87 %
13.03.2019 07:04 6,1 C 5,6 C 5,0 C 81 % 1002,2 hPa 0,0 l/m 0 min 0 min 0 W/m 32,2 km/h (5 Bft) 97,87 %
13.03.2019 07:06 6,1 C 5,6 C 5,0 C 81 % 1002,4 hPa 0,0 l/m 0 min 0 min 5 W/m 29,0 km/h (5 Bft) 97,87 %
13.03.2019 07:08 6,1 C 5,6 C 5,0 C 81 % 1002,3 hPa 0,0 l/m 0 min 0 min 5 W/m 38,6 km/h (5 Bft) 97,87 %
13.03.2019 07:10 6,1 C 5,6 C 5,0 C 81 % 1002,4 hPa 0,0 l/m 0 min 0 min 5 W/m 32,2 km/h (5 Bft) 97,83 %
13.03.2019 07:12 6,1 C 5,6 C 5,0 C 81 % 1002,3 hPa 0,0 l/m 0 min 0 min 7 W/m 38,6 km/h (5 Bft) 97,87 %
13.03.2019 07:14 6,1 C 5,6 C 5,0 C 81 % 1002,4 hPa 0,0 l/m 0 min 0 min 7 W/m 32,2 km/h (5 Bft) 97,87 %
13.03.2019 07:16 6,1 C 5,6 C 5,0 C 81 % 1002,3 hPa 0,0 l/m 0 min 0 min 7 W/m 38,6 km/h (5 Bft) 97,87 %
13.03.2019 07:18 6,2 C 5,6 C 5,0 C 81 % 1002,4 hPa 0,0 l/m 0 min 0 min 7 W/m 29,0 km/h (5 Bft) 97,87 %
13.03.2019 07:20 6,1 C 5,6 C 5,0 C 81 % 1002,4 hPa 0,0 l/m 0 min 0 min 8 W/m 45,1 km/h (6 Bft) 97,87 %
13.03.2019 07:22 6,2 C 5,6 C 5,0 C 80 % 1002,5 hPa 0,0 l/m 0 min 0 min 11 W/m 32,2 km/h (5 Bft) 95,65 %
13.03.2019 07:24 6,2 C 5,6 C 5,0 C 80 % 1002,4 hPa 0,0 l/m 0 min 0 min 12 W/m 41,8 km/h (6 Bft) 97,87 %
13.03.2019 07:26 6,2 C 5,6 C 5,0 C 80 % 1002,5 hPa 0,0 l/m 0 min 0 min 11 W/m 29,0 km/h (5 Bft) 97,87 %
13.03.2019 07:28 6,2 C 5,6 C 5,0 C 80 % 1002,2 hPa 0,0 l/m 0 min 0 min 10 W/m 35,4 km/h (5 Bft) 95,74 %
13.03.2019 07:30 6,2 C 5,6 C 5,0 C 80 % 1002,3 hPa 0,0 l/m 0 min 0 min 16 W/m 51,5 km/h (7 Bft) 93,62 %
13.03.2019 07:32 6,2 C 5,6 C 5,0 C 80 % 1002,2 hPa 0,0 l/m 0 min 0 min 20 W/m 32,2 km/h (5 Bft) 95,74 %
13.03.2019 07:34 6,2 C 5,6 C 5,0 C 80 % 1002,3 hPa 0,0 l/m 0 min 0 min 24 W/m 29,0 km/h (5 Bft) 95,65 %
13.03.2019 07:36 6,2 C 5,6 C 5,0 C 80 % 1002,3 hPa 0,0 l/m 0 min 0 min 24 W/m 29,0 km/h (5 Bft) 93,62 %
13.03.2019 07:38 6,2 C 5,6 C 5,0 C 80 % 1002,3 hPa 0,0 l/m 0 min 0 min 19 W/m 32,2 km/h (5 Bft) 95,74 %
13.03.2019 07:40 6,2 C 5,6 C 5,0 C 80 % 1002,2 hPa 0,0 l/m 0 min 0 min 16 W/m 38,6 km/h (5 Bft) 95,74 %
13.03.2019 07:42 6,2 C 5,6 C 5,0 C 80 % 1002,2 hPa 0,0 l/m 0 min 0 min 15 W/m 29,0 km/h (5 Bft) 95,74 %
13.03.2019 07:44 6,2 C 5,6 C 5,0 C 81 % 1002,1 hPa 0,0 l/m 0 min 0 min 13 W/m 29,0 km/h (5 Bft) 95,65 %
13.03.2019 07:46 6,2 C 5,6 C 5,0 C 81 % 1002,2 hPa 0,0 l/m 0 min 0 min 13 W/m 35,4 km/h (5 Bft) 95,74 %
13.03.2019 07:48 6,2 C 5,6 C 5,0 C 81 % 1002,3 hPa 0,0 l/m 0 min 0 min 12 W/m 35,4 km/h (5 Bft) 95,74 %
13.03.2019 07:50 6,2 C 5,6 C 5,0 C 81 % 1002,1 hPa 0,0 l/m 0 min 0 min 12 W/m 48,3 km/h (6 Bft) 93,62 %
13.03.2019 07:52 6,2 C 5,6 C 5,0 C 81 % 1002,2 hPa 0,0 l/m 0 min 0 min 12 W/m 29,0 km/h (5 Bft) 93,62 %
13.03.2019 07:54 6,2 C 5,6 C 5,0 C 81 % 1002,1 hPa 0,0 l/m 0 min 0 min 18 W/m 32,2 km/h (5 Bft) 95,74 %
13.03.2019 07:56 6,2 C 5,6 C 5,0 C 81 % 1002,1 hPa 0,0 l/m 0 min 0 min 21 W/m 29,0 km/h (5 Bft) 95,65 %
13.03.2019 07:58 6,2 C 5,6 C 5,0 C 81 % 1002,1 hPa 0,0 l/m 0 min 0 min 24 W/m 35,4 km/h (5 Bft) 95,74 %
13.03.2019 08:00 6,2 C 5,6 C 5,0 C 81 % 1002,0 hPa 0,0 l/m 0 min 0 min 28 W/m 61,2 km/h (7 Bft) 95,74 %
13.03.2019 08:02 6,1 C 5,6 C 5,0 C 81 % 1002,2 hPa 0,0 l/m 0 min 0 min 30 W/m 35,4 km/h (5 Bft) 95,74 %
13.03.2019 08:04 6,1 C 5,6 C 5,0 C 81 % 1002,0 hPa 0,0 l/m 0 min 0 min 31 W/m 41,8 km/h (6 Bft) 95,74 %
13.03.2019 08:06 6,1 C 5,6 C 5,0 C 81 % 1001,9 hPa 0,0 l/m 0 min 0 min 40 W/m 35,4 km/h (5 Bft) 97,87 %
13.03.2019 08:08 6,1 C 5,6 C 5,0 C 82 % 1002,1 hPa 0,0 l/m 0 min 0 min 47 W/m 45,1 km/h (6 Bft) 97,83 %
13.03.2019 08:10 6,1 C 5,6 C 5,0 C 82 % 1002,1 hPa 0,0 l/m 0 min 0 min 44 W/m 41,8 km/h (6 Bft) 97,87 %
13.03.2019 08:12 6,1 C 5,6 C 5,0 C 82 % 1002,2 hPa 0,0 l/m 0 min 0 min 47 W/m 35,4 km/h (5 Bft) 95,74 %
13.03.2019 08:14 6,2 C 5,6 C 5,0 C 82 % 1002,1 hPa 0,0 l/m 0 min 0 min 51 W/m 41,8 km/h (6 Bft) 100,00 %
13.03.2019 08:16 6,1 C 5,6 C 5,0 C 82 % 1002,2 hPa 0,0 l/m 0 min 0 min 57 W/m 38,6 km/h (5 Bft) 97,87 %
13.03.2019 08:18 6,1 C 5,6 C 5,0 C 82 % 1002,1 hPa 0,0 l/m 0 min 2 min 44 W/m 41,8 km/h (6 Bft) 97,87 %
13.03.2019 08:20 6,1 C 5,0 C 4,4 C 83 % 1001,9 hPa 0,0 l/m 0 min 2 min 48 W/m 29,0 km/h (5 Bft) 97,83 %
13.03.2019 08:22 6,1 C 5,0 C 4,4 C 83 % 1002,0 hPa 0,0 l/m 0 min 2 min 57 W/m 38,6 km/h (5 Bft) 95,74 %
13.03.2019 08:24 6,1 C 5,6 C 4,4 C 83 % 1001,9 hPa 0,0 l/m 0 min 2 min 58 W/m 45,1 km/h (6 Bft) 97,87 %
13.03.2019 08:26 6,1 C 5,6 C 5,0 C 83 % 1002,0 hPa 0,0 l/m 0 min 2 min 58 W/m 22,5 km/h (4 Bft) 97,87 %
13.03.2019 08:28 6,1 C 5,6 C 5,0 C 84 % 1002,0 hPa 0,0 l/m 0 min 2 min 70 W/m 22,5 km/h (4 Bft) 100,00 %
13.03.2019 08:30 6,1 C 5,6 C 5,0 C 84 % 1001,9 hPa 0,0 l/m 0 min 2 min 94 W/m 29,0 km/h (5 Bft) 100,00 %
13.03.2019 08:32 6,1 C 6,1 C 5,0 C 84 % 1002,0 hPa 0,0 l/m 0 min 2 min 94 W/m 48,3 km/h (6 Bft) 100,00 %
13.03.2019 08:34 6,1 C 6,1 C 5,0 C 84 % 1001,9 hPa 0,0 l/m 0 min 0 min 71 W/m 25,7 km/h (4 Bft) 100,00 %
13.03.2019 08:36 6,1 C 6,1 C 5,6 C 84 % 1002,0 hPa 0,0 l/m 0 min 0 min 72 W/m 35,4 km/h (5 Bft) 100,00 %
13.03.2019 08:38 6,1 C 6,1 C 5,6 C 84 % 1001,8 hPa 0,0 l/m 0 min 0 min 84 W/m 29,0 km/h (5 Bft) 100,00 %
13.03.2019 08:40 6,1 C 6,1 C 5,6 C 83 % 1001,8 hPa 0,0 l/m 0 min 0 min 75 W/m 29,0 km/h (5 Bft) 97,87 %
13.03.2019 08:42 6,2 C 5,6 C 5,6 C 83 % 1001,8 hPa 0,0 l/m 0 min 0 min 70 W/m 70,8 km/h (8 Bft) 97,87 %
13.03.2019 08:44 6,2 C 6,1 C 5,6 C 83 % 1002,0 hPa 0,0 l/m 0 min 0 min 85 W/m 54,7 km/h (7 Bft) 97,83 %
13.03.2019 08:46 6,2 C 6,1 C 5,6 C 83 % 1002,0 hPa 0,0 l/m 0 min 0 min 87 W/m 25,7 km/h (4 Bft) 97,87 %
13.03.2019 08:48 6,2 C 6,1 C 5,6 C 83 % 1001,8 hPa 0,0 l/m 0 min 0 min 90 W/m 29,0 km/h (5 Bft) 100,00 %
13.03.2019 08:50 6,2 C 6,1 C 5,6 C 83 % 1002,0 hPa 0,0 l/m 0 min 0 min 85 W/m 35,4 km/h (5 Bft) 100,00 %
13.03.2019 08:52 6,3 C 6,1 C 5,6 C 83 % 1001,9 hPa 0,0 l/m 0 min 0 min 81 W/m 35,4 km/h (5 Bft) 97,87 %
13.03.2019 08:54 6,3 C 6,1 C 5,6 C 83 % 1002,0 hPa 0,0 l/m 0 min 0 min 88 W/m 29,0 km/h (5 Bft) 97,83 %
13.03.2019 08:56 6,3 C 6,1 C 5,6 C 83 % 1001,9 hPa 0,0 l/m 0 min 0 min 100 W/m 35,4 km/h (5 Bft) 95,74 %
13.03.2019 08:58 6,3 C 6,1 C 5,6 C 83 % 1002,0 hPa 0,0 l/m 0 min 0 min 102 W/m 38,6 km/h (5 Bft) 100,00 %
13.03.2019 09:00 6,3 C 6,1 C 5,6 C 83 % 1001,8 hPa 0,0 l/m 0 min 0 min 105 W/m 38,6 km/h (5 Bft) 100,00 %
13.03.2019 09:02 6,3 C 6,1 C 5,6 C 83 % 1001,9 hPa 0,0 l/m 0 min 0 min 114 W/m 19,3 km/h (3 Bft) 95,74 %
13.03.2019 09:04 6,3 C 6,1 C 5,6 C 83 % 1001,8 hPa 0,0 l/m 0 min 0 min 113 W/m 29,0 km/h (5 Bft) 95,74 %
13.03.2019 09:06 6,3 C 6,1 C 5,6 C 83 % 1001,8 hPa 0,0 l/m 0 min 0 min 101 W/m 45,1 km/h (6 Bft) 95,65 %
13.03.2019 09:08 6,4 C 6,1 C 5,6 C 83 % 1001,8 hPa 0,0 l/m 0 min 0 min 97 W/m 29,0 km/h (5 Bft) 97,87 %
13.03.2019 09:10 6,4 C 6,1 C 5,6 C 83 % 1001,8 hPa 0,0 l/m 0 min 0 min 96 W/m 54,7 km/h (7 Bft) 97,87 %
13.03.2019 09:12 6,4 C 6,1 C 5,6 C 83 % 1002,0 hPa 0,0 l/m 0 min 0 min 85 W/m 48,3 km/h (6 Bft) 97,87 %
13.03.2019 09:14 6,4 C 5,6 C 5,0 C 83 % 1002,0 hPa 0,0 l/m 0 min 0 min 84 W/m 25,7 km/h (4 Bft) 95,74 %
13.03.2019 09:16 6,3 C 5,6 C 5,0 C 83 % 1001,9 hPa 0,0 l/m 0 min 0 min 89 W/m 25,7 km/h (4 Bft) 97,87 %
13.03.2019 09:18 6,3 C 5,6 C 5,0 C 83 % 1001,8 hPa 0,0 l/m 0 min 2 min 94 W/m 35,4 km/h (5 Bft) 97,83 %
13.03.2019 09:20 6,3 C 5,6 C 5,0 C 84 % 1001,6 hPa 0,0 l/m 0 min 2 min 119 W/m 32,2 km/h (5 Bft) 97,87 %
13.03.2019 09:22 6,2 C 5,0 C 5,0 C 84 % 1001,6 hPa 0,0 l/m 0 min 2 min 140 W/m 41,8 km/h (6 Bft) 97,87 %
13.03.2019 09:24 6,2 C 5,6 C 5,0 C 84 % 1001,7 hPa 0,0 l/m 0 min 2 min 144 W/m 41,8 km/h (6 Bft) 97,87 %
13.03.2019 09:26 6,2 C 5,6 C 5,0 C 85 % 1001,7 hPa 0,0 l/m 0 min 2 min 139 W/m 32,2 km/h (5 Bft) 97,87 %
13.03.2019 09:28 6,2 C 5,6 C 5,0 C 85 % 1001,6 hPa 0,0 l/m 0 min 2 min 132 W/m 35,4 km/h (5 Bft) 97,87 %
13.03.2019 09:30 6,1 C 5,6 C 5,0 C 85 % 1001,8 hPa 0,0 l/m 0 min 2 min 111 W/m 38,6 km/h (5 Bft) 97,83 %
13.03.2019 09:32 6,1 C 5,6 C 5,0 C 85 % 1001,7 hPa 0,0 l/m 0 min 2 min 104 W/m 32,2 km/h (5 Bft) 95,74 %
13.03.2019 09:34 6,1 C 5,6 C 5,0 C 86 % 1001,8 hPa 0,0 l/m 0 min 2 min 102 W/m 25,7 km/h (4 Bft) 91,49 %
13.03.2019 09:36 6,1 C 5,6 C 5,0 C 86 % 1001,8 hPa 0,0 l/m 0 min 2 min 98 W/m 32,2 km/h (5 Bft) 97,87 %
13.03.2019 09:38 6,1 C 5,6 C 5,0 C 86 % 1001,7 hPa 0,0 l/m 0 min 2 min 118 W/m 41,8 km/h (6 Bft) 97,92 %
13.03.2019 09:40 6,1 C 6,1 C 5,6 C 86 % 1001,8 hPa 0,0 l/m 0 min 2 min 136 W/m 48,3 km/h (6 Bft) 97,87 %
13.03.2019 09:42 6,1 C 6,1 C 5,6 C 85 % 1001,7 hPa 0,0 l/m 0 min 2 min 139 W/m 41,8 km/h (6 Bft) 97,83 %
13.03.2019 09:44 6,2 C 6,1 C 5,6 C 85 % 1001,8 hPa 0,0 l/m 0 min 2 min 151 W/m 25,7 km/h (4 Bft) 97,87 %
13.03.2019 09:46 6,2 C 6,7 C 5,6 C 85 % 1001,7 hPa 0,0 l/m 0 min 0 min 146 W/m 41,8 km/h (6 Bft) 97,87 %
13.03.2019 09:48 6,2 C 6,1 C 5,6 C 85 % 1001,8 hPa 0,0 l/m 0 min 2 min 119 W/m 38,6 km/h (5 Bft) 93,62 %
13.03.2019 09:50 6,3 C 6,1 C 5,6 C 85 % 1001,7 hPa 0,0 l/m 0 min 0 min 134 W/m 32,2 km/h (5 Bft) 97,87 %
13.03.2019 09:52 6,3 C 6,7 C 5,6 C 85 % 1001,8 hPa 0,0 l/m 0 min 0 min 134 W/m 29,0 km/h (5 Bft) 97,87 %
13.03.2019 09:54 6,4 C 6,7 C 5,6 C 85 % 1001,8 hPa 0,0 l/m 0 min 0 min 131 W/m 35,4 km/h (5 Bft) 100,00 %
13.03.2019 09:56 6,4 C 6,1 C 5,6 C 84 % 1001,7 hPa 0,0 l/m 0 min 0 min 110 W/m 35,4 km/h (5 Bft) 100,00 %
13.03.2019 09:58 6,4 C 6,1 C 5,6 C 84 % 1001,8 hPa 0,0 l/m 0 min 2 min 104 W/m 38,6 km/h (5 Bft) 100,00 %
13.03.2019 10:00 6,4 C 6,1 C 5,6 C 84 % 1001,8 hPa 0,0 l/m 0 min 0 min 109 W/m 25,7 km/h (4 Bft) 97,87 %
13.03.2019 10:02 6,4 C 6,1 C 5,6 C 84 % 1001,7 hPa 0,0 l/m 0 min 2 min 100 W/m 32,2 km/h (5 Bft) 97,87 %
13.03.2019 10:04 6,4 C 6,1 C 5,6 C 84 % 1001,7 hPa 0,0 l/m 0 min 0 min 81 W/m 29,0 km/h (5 Bft) 95,74 %
13.03.2019 10:06 6,4 C 6,1 C 5,6 C 84 % 1001,7 hPa 0,0 l/m 0 min 2 min 67 W/m 29,0 km/h (5 Bft) 100,00 %
13.03.2019 10:08 6,4 C 6,1 C 5,6 C 84 % 1001,6 hPa 0,0 l/m 0 min 0 min 64 W/m 35,4 km/h (5 Bft) 97,87 %
13.03.2019 10:10 6,4 C 6,1 C 5,6 C 84 % 1001,6 hPa 0,0 l/m 0 min 0 min 55 W/m 38,6 km/h (5 Bft) 97,87 %
13.03.2019 10:12 6,4 C 6,1 C 5,6 C 84 % 1001,5 hPa 0,0 l/m 0 min 0 min 67 W/m 51,5 km/h (7 Bft) 95,74 %
13.03.2019 10:14 6,4 C 6,1 C 5,6 C 83 % 1001,6 hPa 0,0 l/m 0 min 2 min 89 W/m 51,5 km/h (7 Bft) 95,74 %
13.03.2019 10:16 6,4 C 6,1 C 5,6 C 84 % 1001,6 hPa 0,0 l/m 0 min 2 min 114 W/m 25,7 km/h (4 Bft) 97,83 %
13.03.2019 10:18 6,5 C 6,1 C 5,6 C 84 % 1001,6 hPa 0,0 l/m 0 min 2 min 120 W/m 29,0 km/h (5 Bft) 97,87 %
13.03.2019 10:20 6,5 C 5,6 C 5,0 C 84 % 1001,7 hPa 0,0 l/m 0 min 2 min 98 W/m 29,0 km/h (5 Bft) 97,87 %
13.03.2019 10:22 6,5 C 5,0 C 4,4 C 84 % 1001,8 hPa 0,0 l/m 0 min 2 min 65 W/m 29,0 km/h (5 Bft) 97,87 %
13.03.2019 10:24 6,5 C 4,4 C 4,4 C 84 % 1001,6 hPa 0,2 l/m 0 min 2 min 56 W/m 35,4 km/h (5 Bft) 100,00 %
13.03.2019 10:26 6,4 C 4,4 C 3,9 C 85 % 1001,7 hPa 0,0 l/m 0 min 2 min 59 W/m 51,5 km/h (7 Bft) 97,87 %
13.03.2019 10:28 6,4 C 4,4 C 3,9 C 85 % 1001,8 hPa 0,0 l/m 0 min 2 min 53 W/m 29,0 km/h (5 Bft) 97,83 %
13.03.2019 10:30 6,3 C 4,4 C 3,9 C 85 % 1001,7 hPa 0,2 l/m 0 min 2 min 66 W/m 29,0 km/h (5 Bft) 97,87 %
13.03.2019 10:32 6,3 C 4,4 C 3,9 C 86 % 1001,7 hPa 0,0 l/m 0 min 2 min 90 W/m 25,7 km/h (4 Bft) 91,49 %
13.03.2019 10:34 6,2 C 4,4 C 3,9 C 86 % 1001,7 hPa 0,0 l/m 0 min 2 min 81 W/m 38,6 km/h (5 Bft) 95,74 %
13.03.2019 10:36 6,2 C 4,4 C 3,9 C 87 % 1001,6 hPa 0,2 l/m 0 min 2 min 71 W/m 41,8 km/h (6 Bft) 93,62 %
13.03.2019 10:38 6,1 C 4,4 C 3,9 C 87 % 1001,7 hPa 0,0 l/m 0 min 2 min 78 W/m 41,8 km/h (6 Bft) 95,83 %
13.03.2019 10:40 6,1 C 4,4 C 3,9 C 87 % 1001,6 hPa 0,0 l/m 0 min 2 min 101 W/m 29,0 km/h (5 Bft) 95,65 %
13.03.2019 10:42 6,0 C 4,4 C 3,9 C 87 % 1001,6 hPa 0,0 l/m 0 min 2 min 123 W/m 25,7 km/h (4 Bft) 95,74 %
13.03.2019 10:44 6,0 C 4,4 C 4,4 C 87 % 1001,6 hPa 0,0 l/m 0 min 2 min 128 W/m 16,1 km/h (3 Bft) 93,62 %
13.03.2019 10:46 6,0 C 5,0 C 4,4 C 88 % 1001,6 hPa 0,0 l/m 0 min 2 min 162 W/m 19,3 km/h (3 Bft) 93,62 %
13.03.2019 10:48 6,1 C 5,0 C 4,4 C 88 % 1001,6 hPa 0,0 l/m 0 min 2 min 195 W/m 25,7 km/h (4 Bft) 95,74 %
13.03.2019 10:50 6,1 C 5,0 C 4,4 C 88 % 1001,5 hPa 0,0 l/m 0 min 2 min 213 W/m 19,3 km/h (3 Bft) 97,87 %
13.03.2019 10:52 6,1 C 5,6 C 4,4 C 89 % 1001,7 hPa 0,0 l/m 0 min 2 min 233 W/m 19,3 km/h (3 Bft) 95,65 %
13.03.2019 10:54 6,2 C 5,6 C 5,0 C 89 % 1001,7 hPa 0,0 l/m 2 min 2 min 271 W/m 29,0 km/h (5 Bft) 97,87 %
13.03.2019 10:56 6,2 C 5,0 C 4,4 C 89 % 1001,6 hPa 0,0 l/m 0 min 2 min 222 W/m 29,0 km/h (5 Bft) 97,87 %
13.03.2019 10:58 6,2 C 5,0 C 4,4 C 89 % 1001,6 hPa 0,0 l/m 0 min 2 min 159 W/m 45,1 km/h (6 Bft) 93,62 %
13.03.2019 11:00 6,2 C 5,0 C 4,4 C 89 % 1001,6 hPa 0,0 l/m 0 min 2 min 165 W/m 22,5 km/h (4 Bft) 95,74 %
13.03.2019 11:02 6,3 C 5,6 C 4,4 C 89 % 1001,6 hPa 0,0 l/m 0 min 2 min 196 W/m 25,7 km/h (4 Bft) 95,74 %
13.03.2019 11:04 6,3 C 5,6 C 5,0 C 89 % 1001,6 hPa 0,0 l/m 0 min 2 min 236 W/m 22,5 km/h (4 Bft) 93,48 %
13.03.2019 11:06 6,4 C 5,6 C 5,0 C 89 % 1001,4 hPa 0,0 l/m 2 min 2 min 269 W/m 32,2 km/h (5 Bft) 95,74 %
13.03.2019 11:08 6,4 C 5,6 C 5,0 C 89 % 1001,5 hPa 0,0 l/m 0 min 2 min 220 W/m 22,5 km/h (4 Bft) 97,87 %
13.03.2019 11:10 6,4 C 5,6 C 5,0 C 89 % 1001,4 hPa 0,0 l/m 0 min 2 min 215 W/m 38,6 km/h (5 Bft) 97,87 %
13.03.2019 11:12 6,4 C 5,6 C 5,0 C 88 % 1001,4 hPa 0,0 l/m 0 min 2 min 183 W/m 25,7 km/h (4 Bft) 97,87 %
13.03.2019 11:14 6,5 C 5,6 C 5,0 C 88 % 1001,3 hPa 0,0 l/m 0 min 2 min 196 W/m 57,9 km/h (7 Bft) 97,87 %
13.03.2019 11:16 6,6 C 6,1 C 5,0 C 88 % 1001,4 hPa 0,0 l/m 0 min 2 min 194 W/m 35,4 km/h (5 Bft) 97,83 %
13.03.2019 11:18 6,6 C 6,1 C 5,6 C 88 % 1001,3 hPa 0,0 l/m 0 min 2 min 215 W/m 25,7 km/h (4 Bft) 97,87 %
13.03.2019 11:20 6,6 C 6,7 C 5,6 C 88 % 1001,4 hPa 0,0 l/m 2 min 2 min 281 W/m 32,2 km/h (5 Bft) 95,74 %
13.03.2019 11:22 6,7 C 6,1 C 6,1 C 88 % 1001,4 hPa 0,0 l/m 2 min 2 min 276 W/m 29,0 km/h (5 Bft) 97,87 %
13.03.2019 11:24 6,7 C 6,1 C 5,6 C 88 % 1001,5 hPa 0,0 l/m 0 min 2 min 156 W/m 32,2 km/h (5 Bft) 97,87 %
13.03.2019 11:26 6,7 C 6,1 C 5,6 C 88 % 1001,4 hPa 0,0 l/m 0 min 2 min 136 W/m 19,3 km/h (3 Bft) 97,83 %
13.03.2019 11:28 6,7 C 5,6 C 5,6 C 88 % 1001,3 hPa 0,0 l/m 0 min 2 min 133 W/m 32,2 km/h (5 Bft) 100,00 %
13.03.2019 11:30 6,7 C 5,6 C 5,6 C 87 % 1001,7 hPa 0,0 l/m 0 min 2 min 151 W/m 35,4 km/h (5 Bft) 95,74 %
13.03.2019 11:32 6,8 C 5,6 C 5,6 C 87 % 1001,3 hPa 0,0 l/m 0 min 2 min 140 W/m 25,7 km/h (4 Bft) 100,00 %
13.03.2019 11:34 6,7 C 6,1 C 5,6 C 87 % 1001,5 hPa 0,0 l/m 0 min 0 min 174 W/m 32,2 km/h (5 Bft) 100,00 %
13.03.2019 11:36 6,8 C 5,6 C 5,6 C 87 % 1001,3 hPa 0,0 l/m 0 min 2 min 181 W/m 38,6 km/h (5 Bft) 97,87 %
13.03.2019 11:38 6,7 C 5,6 C 5,6 C 87 % 1001,4 hPa 0,0 l/m 0 min 2 min 177 W/m 29,0 km/h (5 Bft) 97,87 %
13.03.2019 11:40 6,7 C 6,1 C 5,6 C 87 % 1001,3 hPa 0,0 l/m 0 min 2 min 177 W/m 25,7 km/h (4 Bft) 97,87 %
13.03.2019 11:42 6,8 C 6,1 C 5,6 C 87 % 1001,2 hPa 0,0 l/m 0 min 2 min 164 W/m 25,7 km/h (4 Bft) 97,87 %
13.03.2019 11:44 6,8 C 6,1 C 6,1 C 87 % 1001,5 hPa 0,0 l/m 0 min 2 min 206 W/m 38,6 km/h (5 Bft) 97,83 %
13.03.2019 11:46 6,8 C 6,1 C 6,1 C 87 % 1001,1 hPa 0,0 l/m 0 min 0 min 197 W/m 32,2 km/h (5 Bft) 95,74 %
13.03.2019 11:48 6,8 C 6,1 C 6,1 C 87 % 1001,3 hPa 0,0 l/m 0 min 0 min 243 W/m 35,4 km/h (5 Bft) 97,87 %
13.03.2019 11:50 6,9 C 6,7 C 6,7 C 87 % 1001,2 hPa 0,0 l/m 0 min 0 min 238 W/m 29,0 km/h (5 Bft) 97,87 %
13.03.2019 11:52 6,9 C 6,1 C 6,7 C 87 % 1001,2 hPa 0,0 l/m 0 min 0 min 202 W/m 35,4 km/h (5 Bft) 100,00 %
13.03.2019 11:54 6,9 C 6,7 C 6,7 C 86 % 1001,2 hPa 0,0 l/m 0 min 0 min 166 W/m 25,7 km/h (4 Bft) 100,00 %
13.03.2019 11:56 6,9 C 6,7 C 6,7 C 86 % 1001,3 hPa 0,0 l/m 0 min 0 min 187 W/m 48,3 km/h (6 Bft) 100,00 %
13.03.2019 11:58 6,9 C 6,1 C 6,1 C 86 % 1001,0 hPa 0,0 l/m 0 min 0 min 200 W/m 54,7 km/h (7 Bft) 97,87 %
13.03.2019 12:00 7,0 C 6,1 C 6,7 C 85 % 1001,0 hPa 0,0 l/m 0 min 0 min 227 W/m 51,5 km/h (7 Bft) 97,87 %
13.03.2019 12:02 7,0 C 6,7 C 6,7 C 85 % 1000,9 hPa 0,0 l/m 0 min 0 min 240 W/m 25,7 km/h (4 Bft) 97,87 %
13.03.2019 12:04 7,1 C 7,2 C 6,7 C 85 % 1000,9 hPa 0,0 l/m 0 min 0 min 253 W/m 35,4 km/h (5 Bft) 97,87 %
13.03.2019 12:08 7,2 C 7,8 C 7,2 C 85 % 1001,0 hPa 0,0 l/m 0 min 0 min 280 W/m 54,7 km/h (7 Bft) 98,92 %
13.03.2019 12:10 7,2 C 7,8 C 7,2 C 85 % 1000,8 hPa 0,0 l/m 0 min 0 min 257 W/m 38,6 km/h (5 Bft) 97,87 %
13.03.2019 12:12 7,2 C 7,8 C 7,2 C 85 % 1000,9 hPa 0,0 l/m 0 min 0 min 277 W/m 41,8 km/h (6 Bft) 95,74 %
13.03.2019 12:14 7,3 C 7,8 C 7,2 C 85 % 1000,9 hPa 0,0 l/m 2 min 0 min 308 W/m 41,8 km/h (6 Bft) 97,87 %
13.03.2019 12:16 7,3 C 7,8 C 7,2 C 84 % 1000,9 hPa 0,0 l/m 2 min 0 min 299 W/m 54,7 km/h (7 Bft) 97,87 %
13.03.2019 12:18 7,4 C 8,3 C 7,8 C 84 % 1000,9 hPa 0,0 l/m 2 min 0 min 333 W/m 29,0 km/h (5 Bft) 93,62 %
13.03.2019 12:20 7,4 C 8,3 C 7,8 C 84 % 1000,9 hPa 0,0 l/m 2 min 0 min 357 W/m 35,4 km/h (5 Bft) 97,83 %
13.03.2019 12:22 7,4 C 8,3 C 7,8 C 84 % 1001,0 hPa 0,0 l/m 2 min 0 min 355 W/m 48,3 km/h (6 Bft) 95,74 %
13.03.2019 12:24 7,5 C 7,8 C 7,2 C 84 % 1001,0 hPa 0,0 l/m 0 min 0 min 166 W/m 41,8 km/h (6 Bft) 97,87 %
13.03.2019 12:26 7,5 C 7,8 C 7,2 C 84 % 1001,0 hPa 0,0 l/m 0 min 0 min 178 W/m 35,4 km/h (5 Bft) 97,87 %
13.03.2019 12:28 7,6 C 7,8 C 7,2 C 84 % 1000,9 hPa 0,0 l/m 0 min 0 min 175 W/m 29,0 km/h (5 Bft) 97,87 %
13.03.2019 12:30 7,5 C 7,2 C 7,2 C 83 % 1001,0 hPa 0,0 l/m 0 min 0 min 175 W/m 48,3 km/h (6 Bft) 97,87 %
13.03.2019 12:32 7,5 C 7,2 C 7,2 C 83 % 1001,0 hPa 0,0 l/m 0 min 0 min 140 W/m 41,8 km/h (6 Bft) 97,83 %
13.03.2019 12:34 7,5 C 7,2 C 7,2 C 83 % 1001,0 hPa 0,0 l/m 0 min 0 min 132 W/m 38,6 km/h (5 Bft) 97,87 %
13.03.2019 12:36 7,5 C 7,2 C 7,2 C 83 % 1001,0 hPa 0,0 l/m 0 min 0 min 155 W/m 19,3 km/h (3 Bft) 95,74 %
13.03.2019 12:38 7,5 C 7,2 C 7,2 C 83 % 1001,0 hPa 0,0 l/m 0 min 0 min 157 W/m 35,4 km/h (5 Bft) 95,74 %
13.03.2019 12:40 7,5 C 7,2 C 7,2 C 83 % 1001,0 hPa 0,0 l/m 0 min 0 min 194 W/m 32,2 km/h (5 Bft) 97,87 %
13.03.2019 12:42 7,5 C 7,8 C 7,2 C 83 % 1001,0 hPa 0,0 l/m 0 min 0 min 166 W/m 32,2 km/h (5 Bft) 95,74 %
13.03.2019 12:44 7,6 C 7,8 C 7,8 C 83 % 1001,0 hPa 0,0 l/m 0 min 0 min 202 W/m 25,7 km/h (4 Bft) 95,65 %
13.03.2019 12:46 7,6 C 8,3 C 7,8 C 83 % 1000,9 hPa 0,0 l/m 0 min 0 min 227 W/m 25,7 km/h (4 Bft) 95,74 %
13.03.2019 12:48 7,6 C 7,8 C 7,8 C 84 % 1000,9 hPa 0,0 l/m 0 min 0 min 183 W/m 35,4 km/h (5 Bft) 93,62 %
13.03.2019 12:50 7,6 C 7,8 C 7,2 C 83 % 1001,0 hPa 0,0 l/m 0 min 0 min 127 W/m 54,7 km/h (7 Bft) 95,74 %
13.03.2019 12:52 7,6 C 7,8 C 7,2 C 83 % 1001,0 hPa 0,0 l/m 0 min 0 min 137 W/m 35,4 km/h (5 Bft) 93,62 %
13.03.2019 12:54 7,6 C 7,8 C 7,2 C 83 % 1001,0 hPa 0,0 l/m 0 min 0 min 181 W/m 32,2 km/h (5 Bft) 95,65 %
13.03.2019 12:56 7,6 C 7,8 C 7,2 C 83 % 1000,9 hPa 0,0 l/m 0 min 0 min 154 W/m 35,4 km/h (5 Bft) 95,74 %
13.03.2019 12:58 7,7 C 7,8 C 7,2 C 83 % 1001,0 hPa 0,0 l/m 0 min 0 min 154 W/m 25,7 km/h (4 Bft) 95,74 %
13.03.2019 13:00 7,7 C 7,8 C 7,2 C 83 % 1001,0 hPa 0,0 l/m 0 min 0 min 176 W/m 22,5 km/h (4 Bft) 95,74 %
13.03.2019 13:02 7,7 C 7,8 C 7,2 C 83 % 1001,0 hPa 0,0 l/m 0 min 0 min 183 W/m 29,0 km/h (5 Bft) 93,62 %
13.03.2019 13:04 7,7 C 7,8 C 7,2 C 83 % 1001,0 hPa 0,0 l/m 0 min 0 min 172 W/m 38,6 km/h (5 Bft) 95,74 %
13.03.2019 13:06 7,7 C 7,8 C 7,2 C 83 % 1001,0 hPa 0,0 l/m 0 min 2 min 117 W/m 29,0 km/h (5 Bft) 93,48 %
13.03.2019 13:08 7,7 C 7,2 C 6,7 C 84 % 1001,1 hPa 0,0 l/m 0 min 2 min 81 W/m 35,4 km/h (5 Bft) 97,87 %
13.03.2019 13:10 7,7 C 6,7 C 5,6 C 84 % 1001,0 hPa 0,0 l/m 0 min 2 min 55 W/m 38,6 km/h (5 Bft) 97,87 %
13.03.2019 13:12 7,7 C 6,1 C 5,6 C 84 % 1001,2 hPa 0,0 l/m 0 min 2 min 49 W/m 25,7 km/h (4 Bft) 97,87 %
13.03.2019 13:14 7,6 C 5,6 C 5,0 C 85 % 1001,0 hPa 0,2 l/m 0 min 2 min 55 W/m 25,7 km/h (4 Bft) 97,87 %
13.03.2019 13:16 7,5 C 5,6 C 5,0 C 85 % 1000,9 hPa 0,0 l/m 0 min 2 min 61 W/m 25,7 km/h (4 Bft) 97,87 %
13.03.2019 13:18 7,4 C 5,6 C 5,0 C 85 % 1001,2 hPa 0,0 l/m 0 min 2 min 55 W/m 32,2 km/h (5 Bft) 97,83 %
13.03.2019 13:20 7,4 C 5,0 C 5,0 C 86 % 1001,1 hPa 0,2 l/m 0 min 2 min 65 W/m 29,0 km/h (5 Bft) 95,74 %
13.03.2019 13:22 7,3 C 5,0 C 4,4 C 86 % 1001,0 hPa 0,0 l/m 0 min 2 min 73 W/m 45,1 km/h (6 Bft) 95,74 %
13.03.2019 13:24 7,2 C 5,0 C 5,0 C 87 % 1001,0 hPa 0,0 l/m 0 min 2 min 76 W/m 22,5 km/h (4 Bft) 97,87 %
13.03.2019 13:26 7,1 C 5,0 C 5,0 C 87 % 1000,9 hPa 0,0 l/m 0 min 2 min 66 W/m 16,1 km/h (3 Bft) 100,00 %
13.03.2019 13:28 7,1 C 5,0 C 4,4 C 87 % 1001,0 hPa 0,2 l/m 0 min 2 min 68 W/m 45,1 km/h (6 Bft) 100,00 %
13.03.2019 13:30 6,9 C 5,0 C 4,4 C 88 % 1000,8 hPa 0,0 l/m 0 min 2 min 79 W/m 25,7 km/h (4 Bft) 97,83 %
13.03.2019 13:32 6,9 C 5,0 C 5,0 C 88 % 1000,9 hPa 0,0 l/m 0 min 2 min 86 W/m 35,4 km/h (5 Bft) 100,00 %
13.03.2019 13:34 6,9 C 5,0 C 5,0 C 88 % 1000,8 hPa 0,0 l/m 0 min 2 min 96 W/m 35,4 km/h (5 Bft) 100,00 %
13.03.2019 13:36 6,8 C 5,0 C 5,0 C 89 % 1000,8 hPa 0,0 l/m 0 min 2 min 109 W/m 25,7 km/h (4 Bft) 97,87 %
13.03.2019 13:38 6,8 C 5,0 C 5,0 C 89 % 1000,9 hPa 0,0 l/m 0 min 2 min 121 W/m 25,7 km/h (4 Bft) 100,00 %
13.03.2019 13:40 6,8 C 5,6 C 5,0 C 89 % 1000,9 hPa 0,0 l/m 0 min 2 min 109 W/m 19,3 km/h (3 Bft) 97,87 %
13.03.2019 13:42 6,8 C 5,6 C 5,0 C 90 % 1000,8 hPa 0,2 l/m 0 min 2 min 99 W/m 35,4 km/h (5 Bft) 100,00 %
13.03.2019 13:44 6,7 C 5,6 C 5,0 C 90 % 1000,8 hPa 0,0 l/m 0 min 2 min 92 W/m 22,5 km/h (4 Bft) 100,00 %
13.03.2019 13:46 6,7 C 5,6 C 5,0 C 90 % 1000,8 hPa 0,0 l/m 0 min 2 min 103 W/m 32,2 km/h (5 Bft) 100,00 %
13.03.2019 13:48 6,7 C 5,6 C 5,0 C 90 % 1000,8 hPa 0,0 l/m 0 min 2 min 84 W/m 29,0 km/h (5 Bft) 97,87 %
13.03.2019 13:50 6,7 C 5,6 C 5,0 C 90 % 1000,9 hPa 0,0 l/m 0 min 2 min 63 W/m 19,3 km/h (3 Bft) 100,00 %
13.03.2019 13:52 6,7 C 5,6 C 5,0 C 91 % 1000,8 hPa 0,0 l/m 0 min 2 min 62 W/m 38,6 km/h (5 Bft) 97,87 %
13.03.2019 13:54 6,7 C 5,6 C 5,0 C 91 % 1001,0 hPa 0,0 l/m 0 min 2 min 67 W/m 35,4 km/h (5 Bft) 97,83 %
13.03.2019 13:56 6,7 C 5,6 C 5,0 C 91 % 1000,9 hPa 0,0 l/m 0 min 2 min 58 W/m 25,7 km/h (4 Bft) 93,62 %
13.03.2019 13:58 6,7 C 5,6 C 5,0 C 91 % 1000,9 hPa 0,0 l/m 0 min 2 min 71 W/m 19,3 km/h (3 Bft) 95,74 %
13.03.2019 14:00 6,7 C 5,6 C 5,0 C 91 % 1000,9 hPa 0,0 l/m 0 min 2 min 146 W/m 16,1 km/h (3 Bft) 95,74 %
13.03.2019 14:02 6,7 C 5,6 C 5,6 C 91 % 1000,9 hPa 0,0 l/m 0 min 2 min 197 W/m 19,3 km/h (3 Bft) 95,74 %
13.03.2019 14:04 6,7 C 5,6 C 5,6 C 91 % 1000,9 hPa 0,0 l/m 0 min 2 min 213 W/m 25,7 km/h (4 Bft) 97,87 %
13.03.2019 14:06 6,7 C 6,1 C 5,6 C 92 % 1000,8 hPa 0,0 l/m 0 min 2 min 252 W/m 38,6 km/h (5 Bft) 97,83 %
13.03.2019 14:08 6,8 C 6,1 C 5,6 C 92 % 1000,8 hPa 0,0 l/m 0 min 2 min 244 W/m 19,3 km/h (3 Bft) 97,87 %
13.03.2019 14:10 6,8 C 6,1 C 5,6 C 92 % 1000,8 hPa 0,0 l/m 0 min 2 min 223 W/m 29,0 km/h (5 Bft) 97,87 %
13.03.2019 14:12 6,8 C 6,7 C 5,6 C 92 % 1000,9 hPa 0,0 l/m 0 min 2 min 238 W/m 22,5 km/h (4 Bft) 97,87 %
13.03.2019 14:20 7,0 C 5,6 C 6,1 C 92 % 1000,7 hPa 0,2 l/m 0 min 5 min 89 W/m 35,4 km/h (5 Bft) 100,00 %
13.03.2019 14:22 6,9 C 5,6 C 6,1 C 91 % 1000,8 hPa 0,0 l/m 0 min 2 min 50 W/m 32,2 km/h (5 Bft) 95,74 %
13.03.2019 14:24 6,9 C 5,6 C 6,1 C 91 % 1000,7 hPa 0,0 l/m 0 min 2 min 50 W/m 32,2 km/h (5 Bft) 95,35 %
13.03.2019 14:26 6,9 C 5,6 C 5,0 C 91 % 1000,8 hPa 0,0 l/m 0 min 2 min 101 W/m 29,0 km/h (5 Bft) 100,00 %
13.03.2019 14:28 6,9 C 6,1 C 5,6 C 91 % 1000,8 hPa 0,0 l/m 0 min 2 min 159 W/m 22,5 km/h (4 Bft) 97,87 %
13.03.2019 14:30 6,9 C 6,1 C 5,6 C 91 % 1000,7 hPa 0,0 l/m 0 min 2 min 227 W/m 25,7 km/h (4 Bft) 97,92 %
13.03.2019 14:32 7,0 C 6,1 C 5,6 C 91 % 1000,7 hPa 0,0 l/m 0 min 2 min 177 W/m 32,2 km/h (5 Bft) 98,00 %
13.03.2019 14:34 7,0 C 6,1 C 5,6 C 91 % 1000,7 hPa 0,0 l/m 0 min 2 min 138 W/m 29,0 km/h (5 Bft) 95,74 %
13.03.2019 14:36 7,1 C 6,1 C 5,6 C 91 % 1000,7 hPa 0,0 l/m 0 min 2 min 119 W/m 22,5 km/h (4 Bft) 97,83 %
13.03.2019 14:38 7,1 C 6,1 C 5,6 C 91 % 1000,7 hPa 0,0 l/m 0 min 2 min 136 W/m 29,0 km/h (5 Bft) 97,87 %
13.03.2019 14:40 7,1 C 6,1 C 5,6 C 91 % 1000,7 hPa 0,0 l/m 0 min 2 min 127 W/m 41,8 km/h (6 Bft) 97,87 %
13.03.2019 14:42 7,1 C 6,1 C 5,6 C 91 % 1000,7 hPa 0,0 l/m 0 min 2 min 110 W/m 16,1 km/h (3 Bft) 97,87 %
13.03.2019 14:44 7,1 C 6,1 C 5,6 C 91 % 1000,7 hPa 0,0 l/m 0 min 2 min 79 W/m 29,0 km/h (5 Bft) 97,87 %
13.03.2019 14:46 7,1 C 6,1 C 5,6 C 91 % 1000,7 hPa 0,0 l/m 0 min 2 min 58 W/m 16,1 km/h (3 Bft) 95,74 %
13.03.2019 14:48 7,1 C 5,6 C 5,0 C 91 % 1000,7 hPa 0,0 l/m 0 min 2 min 42 W/m 32,2 km/h (5 Bft) 100,00 %
13.03.2019 14:50 7,1 C 5,6 C 5,0 C 91 % 1000,7 hPa 0,2 l/m 0 min 2 min 58 W/m 19,3 km/h (3 Bft) 100,00 %
13.03.2019 14:52 7,1 C 5,6 C 5,0 C 91 % 1000,6 hPa 0,0 l/m 0 min 2 min 66 W/m 25,7 km/h (4 Bft) 97,87 %
13.03.2019 14:54 7,1 C 5,6 C 5,6 C 91 % 1000,6 hPa 0,0 l/m 0 min 2 min 79 W/m 16,1 km/h (3 Bft) 100,00 %
13.03.2019 14:56 7,1 C 5,6 C 5,0 C 91 % 1000,7 hPa 0,0 l/m 0 min 2 min 88 W/m 32,2 km/h (5 Bft) 100,00 %
13.03.2019 14:58 7,1 C 5,6 C 5,6 C 91 % 1000,7 hPa 0,0 l/m 0 min 2 min 105 W/m 29,0 km/h (5 Bft) 100,00 %
13.03.2019 15:00 7,1 C 5,6 C 5,0 C 91 % 1000,8 hPa 0,0 l/m 0 min 2 min 96 W/m 32,2 km/h (5 Bft) 97,73 %
13.03.2019 15:02 7,1 C 5,6 C 5,6 C 91 % 1000,6 hPa 0,0 l/m 0 min 2 min 74 W/m 12,9 km/h (3 Bft) 100,00 %
13.03.2019 15:04 7,1 C 5,6 C 5,0 C 92 % 1000,7 hPa 0,0 l/m 0 min 2 min 50 W/m 22,5 km/h (4 Bft) 97,87 %
13.03.2019 15:06 7,1 C 5,6 C 5,0 C 92 % 1000,8 hPa 0,0 l/m 0 min 2 min 54 W/m 25,7 km/h (4 Bft) 98,00 %
13.03.2019 15:08 7,1 C 5,6 C 5,6 C 92 % 1000,8 hPa 0,0 l/m 0 min 2 min 76 W/m 12,9 km/h (3 Bft) 100,00 %
13.03.2019 15:10 7,1 C 6,1 C 5,6 C 92 % 1000,8 hPa 0,2 l/m 0 min 2 min 117 W/m 29,0 km/h (5 Bft) 100,00 %
13.03.2019 15:12 7,1 C 6,1 C 5,6 C 92 % 1000,7 hPa 0,0 l/m 0 min 2 min 196 W/m 35,4 km/h (5 Bft) 95,74 %
13.03.2019 15:14 7,1 C 6,1 C 5,6 C 92 % 1000,8 hPa 0,0 l/m 0 min 2 min 130 W/m 16,1 km/h (3 Bft) 100,00 %
13.03.2019 15:16 7,2 C 6,1 C 5,6 C 92 % 1000,9 hPa 0,0 l/m 0 min 2 min 113 W/m 19,3 km/h (3 Bft) 100,00 %
13.03.2019 15:18 7,2 C 6,1 C 6,1 C 92 % 1000,8 hPa 0,0 l/m 0 min 2 min 152 W/m 22,5 km/h (4 Bft) 100,00 %
13.03.2019 15:20 7,2 C 6,1 C 5,6 C 92 % 1000,9 hPa 0,0 l/m 0 min 0 min 89 W/m 22,5 km/h (4 Bft) 98,15 %
13.03.2019 15:22 7,2 C 6,1 C 5,6 C 92 % 1000,9 hPa 0,0 l/m 0 min 2 min 40 W/m 25,7 km/h (4 Bft) 95,65 %
13.03.2019 15:24 7,2 C 5,6 C 5,6 C 92 % 1000,8 hPa 0,0 l/m 0 min 2 min 31 W/m 16,1 km/h (3 Bft) 91,49 %
13.03.2019 15:26 7,2 C 5,6 C 5,0 C 92 % 1000,9 hPa 0,0 l/m 0 min 2 min 31 W/m 22,5 km/h (4 Bft) 94,74 %
13.03.2019 15:28 7,1 C 5,6 C 5,0 C 91 % 1001,2 hPa 0,2 l/m 0 min 2 min 26 W/m 16,1 km/h (3 Bft) 95,74 %
13.03.2019 15:30 7,1 C 5,6 C 5,0 C 91 % 1001,2 hPa 0,0 l/m 0 min 2 min 24 W/m 25,7 km/h (4 Bft) 95,74 %
13.03.2019 15:32 7,1 C 5,6 C 5,0 C 91 % 1001,2 hPa 0,0 l/m 0 min 2 min 35 W/m 32,2 km/h (5 Bft) 95,74 %
13.03.2019 15:34 7,1 C 5,6 C 5,0 C 91 % 1001,2 hPa 0,2 l/m 0 min 2 min 32 W/m 16,1 km/h (3 Bft) 95,74 %
13.03.2019 15:36 7,1 C 5,6 C 5,0 C 92 % 1001,2 hPa 0,0 l/m 0 min 2 min 22 W/m 32,2 km/h (5 Bft) 95,92 %
13.03.2019 15:38 7,0 C 5,6 C 5,0 C 91 % 1001,2 hPa 0,0 l/m 0 min 2 min 12 W/m 19,3 km/h (3 Bft) 91,30 %
13.03.2019 15:40 6,9 C 5,6 C 5,0 C 91 % 1001,2 hPa 0,0 l/m 0 min 2 min 7 W/m 35,4 km/h (5 Bft) 95,74 %
13.03.2019 15:42 6,9 C 5,0 C 5,0 C 91 % 1000,9 hPa 0,0 l/m 0 min 2 min 9 W/m 19,3 km/h (3 Bft) 93,62 %
13.03.2019 15:44 6,8 C 5,0 C 5,0 C 91 % 1000,9 hPa 0,2 l/m 0 min 2 min 11 W/m 19,3 km/h (3 Bft) 93,62 %
13.03.2019 15:46 6,8 C 5,0 C 5,0 C 91 % 1001,0 hPa 0,0 l/m 0 min 2 min 16 W/m 16,1 km/h (3 Bft) 95,74 %
13.03.2019 15:48 6,7 C 5,0 C 5,0 C 91 % 1001,1 hPa 0,0 l/m 0 min 2 min 18 W/m 22,5 km/h (4 Bft) 95,74 %
13.03.2019 15:50 6,7 C 5,0 C 5,0 C 92 % 1001,1 hPa 0,0 l/m 0 min 2 min 11 W/m 22,5 km/h (4 Bft) 97,83 %
13.03.2019 15:52 6,7 C 5,0 C 5,0 C 91 % 1001,1 hPa 0,0 l/m 0 min 2 min 8 W/m 35,4 km/h (5 Bft) 96,30 %
13.03.2019 15:54 6,7 C 5,0 C 5,0 C 91 % 1001,1 hPa 0,2 l/m 0 min 2 min 12 W/m 41,8 km/h (6 Bft) 94,74 %
13.03.2019 15:56 6,7 C 5,0 C 5,0 C 92 % 1001,0 hPa 0,2 l/m 0 min 2 min 17 W/m 25,7 km/h (4 Bft) 95,92 %
13.03.2019 15:58 6,7 C 5,0 C 5,0 C 92 % 1001,2 hPa 0,0 l/m 0 min 2 min 15 W/m 19,3 km/h (3 Bft) 93,62 %
13.03.2019 16:00 6,6 C 5,0 C 5,0 C 92 % 1001,2 hPa 0,0 l/m 0 min 2 min 12 W/m 16,1 km/h (3 Bft) 94,34 %
13.03.2019 16:02 6,7 C 5,0 C 5,0 C 92 % 1001,2 hPa 0,0 l/m 0 min 2 min 13 W/m 19,3 km/h (3 Bft) 93,62 %
13.03.2019 16:04 6,6 C 5,0 C 5,0 C 92 % 1001,2 hPa 0,0 l/m 0 min 2 min 22 W/m 19,3 km/h (3 Bft) 94,74 %
13.03.2019 16:06 6,6 C 5,0 C 5,0 C 92 % 1001,1 hPa 0,0 l/m 0 min 2 min 30 W/m 29,0 km/h (5 Bft) 95,74 %
13.03.2019 16:08 6,6 C 5,0 C 5,0 C 92 % 1001,2 hPa 0,0 l/m 0 min 2 min 33 W/m 12,9 km/h (3 Bft) 97,92 %
13.03.2019 16:10 6,6 C 5,6 C 5,0 C 92 % 1001,2 hPa 0,0 l/m 0 min 2 min 31 W/m 16,1 km/h (3 Bft) 97,83 %
13.03.2019 16:12 6,6 C 5,6 C 5,0 C 92 % 1001,2 hPa 0,2 l/m 0 min 2 min 26 W/m 12,9 km/h (3 Bft) 97,96 %
13.03.2019 16:14 6,6 C 5,6 C 5,0 C 92 % 1001,3 hPa 0,0 l/m 0 min 2 min 17 W/m 16,1 km/h (3 Bft) 100,00 %
13.03.2019 16:16 6,6 C 5,6 C 5,0 C 93 % 1001,4 hPa 0,0 l/m 0 min 2 min 14 W/m 9,7 km/h (2 Bft) 100,00 %
13.03.2019 16:18 6,6 C 5,6 C 5,0 C 93 % 1001,4 hPa 0,2 l/m 0 min 2 min 10 W/m 16,1 km/h (3 Bft) 100,00 %
13.03.2019 16:20 6,6 C 5,0 C 5,0 C 93 % 1001,2 hPa 0,0 l/m 0 min 2 min 6 W/m 9,7 km/h (2 Bft) 97,87 %
13.03.2019 16:22 6,6 C 5,0 C 5,0 C 93 % 1001,2 hPa 0,0 l/m 0 min 2 min 3 W/m 12,9 km/h (3 Bft) 100,00 %
13.03.2019 16:24 6,6 C 5,6 C 5,0 C 93 % 1001,2 hPa 0,0 l/m 0 min 2 min 0 W/m 16,1 km/h (3 Bft) 100,00 %
13.03.2019 16:26 6,6 C 5,6 C 5,0 C 93 % 1001,1 hPa 0,0 l/m 0 min 2 min 0 W/m 16,1 km/h (3 Bft) 100,00 %
13.03.2019 16:28 6,6 C 5,6 C 5,0 C 93 % 1001,2 hPa 0,0 l/m 0 min 2 min 0 W/m 16,1 km/h (3 Bft) 100,00 %
13.03.2019 16:30 6,6 C 5,6 C 5,0 C 93 % 1001,3 hPa 0,2 l/m 0 min 2 min 0 W/m 16,1 km/h (3 Bft) 97,87 %
13.03.2019 16:32 6,6 C 5,6 C 5,0 C 93 % 1001,4 hPa 0,2 l/m 0 min 2 min 0 W/m 9,7 km/h (2 Bft) 97,87 %
13.03.2019 16:34 6,6 C 5,0 C 5,0 C 93 % 1001,5 hPa 0,2 l/m 0 min 2 min 0 W/m 22,5 km/h (4 Bft) 100,00 %
13.03.2019 16:36 6,6 C 5,0 C 4,4 C 93 % 1001,5 hPa 0,6 l/m 0 min 2 min 0 W/m 9,7 km/h (2 Bft) 100,00 %
13.03.2019 16:38 6,6 C 5,0 C 4,4 C 93 % 1001,7 hPa 0,6 l/m 0 min 2 min 0 W/m 32,2 km/h (5 Bft) 100,00 %
13.03.2019 16:40 6,4 C 5,0 C 4,4 C 93 % 1001,7 hPa 0,2 l/m 0 min 2 min 5 W/m 22,5 km/h (4 Bft) 100,00 %
13.03.2019 16:42 6,4 C 4,4 C 3,9 C 93 % 1001,7 hPa 0,0 l/m 0 min 2 min 5 W/m 25,7 km/h (4 Bft) 100,00 %
13.03.2019 16:44 6,3 C 4,4 C 3,9 C 93 % 1001,6 hPa 0,2 l/m 0 min 2 min 5 W/m 25,7 km/h (4 Bft) 100,00 %
13.03.2019 16:46 6,2 C 4,4 C 3,9 C 93 % 1001,6 hPa 0,0 l/m 0 min 2 min 5 W/m 16,1 km/h (3 Bft) 100,00 %
13.03.2019 16:48 6,1 C 4,4 C 3,9 C 93 % 1001,5 hPa 0,0 l/m 0 min 2 min 7 W/m 16,1 km/h (3 Bft) 100,00 %
13.03.2019 16:50 6,0 C 4,4 C 3,9 C 93 % 1001,5 hPa 0,0 l/m 0 min 0 min 7 W/m 22,5 km/h (4 Bft) 100,00 %
13.03.2019 16:52 5,9 C 4,4 C 3,9 C 93 % 1001,6 hPa 0,0 l/m 0 min 0 min 2 W/m 9,7 km/h (2 Bft) 97,37 %
13.03.2019 16:54 5,9 C 4,4 C 3,9 C 93 % 1001,6 hPa 0,0 l/m 0 min 2 min 0 W/m 19,3 km/h (3 Bft) 100,00 %
13.03.2019 16:56 5,9 C 4,4 C 3,9 C 93 % 1001,7 hPa 0,0 l/m 0 min 2 min 0 W/m 19,3 km/h (3 Bft) 97,96 %
13.03.2019 16:58 5,8 C 4,4 C 3,9 C 93 % 1001,8 hPa 0,2 l/m 0 min 2 min 0 W/m 29,0 km/h (5 Bft) 100,00 %
13.03.2019 17:00 5,8 C 4,4 C 3,9 C 93 % 1001,9 hPa 0,2 l/m 0 min 2 min 0 W/m 32,2 km/h (5 Bft) 100,00 %
13.03.2019 17:02 5,7 C 4,4 C 3,9 C 93 % 1001,9 hPa 0,2 l/m 0 min 2 min 0 W/m 38,6 km/h (5 Bft) 100,00 %
13.03.2019 17:04 5,6 C 3,9 C 3,9 C 93 % 1001,9 hPa 0,4 l/m 0 min 2 min 8 W/m 35,4 km/h (5 Bft) 100,00 %
13.03.2019 17:06 5,6 C 3,9 C 3,9 C 93 % 1001,7 hPa 0,0 l/m 0 min 2 min 18 W/m 16,1 km/h (3 Bft) 100,00 %
13.03.2019 17:08 5,4 C 3,9 C 3,9 C 93 % 1001,7 hPa 0,0 l/m 0 min 2 min 20 W/m 9,7 km/h (2 Bft) 97,92 %
13.03.2019 17:10 5,4 C 3,9 C 3,9 C 93 % 1001,7 hPa 0,0 l/m 0 min 0 min 29 W/m 16,1 km/h (3 Bft) 100,00 %
13.03.2019 17:12 5,4 C 3,9 C 3,9 C 93 % 1001,8 hPa 0,0 l/m 0 min 0 min 33 W/m 16,1 km/h (3 Bft) 95,74 %
13.03.2019 17:14 5,3 C 3,9 C 3,9 C 93 % 1001,7 hPa 0,0 l/m 0 min 0 min 27 W/m 19,3 km/h (3 Bft) 100,00 %
13.03.2019 17:16 5,3 C 3,9 C 3,9 C 93 % 1001,7 hPa 0,0 l/m 0 min 0 min 25 W/m 9,7 km/h (2 Bft) 100,00 %
13.03.2019 17:18 5,3 C 4,4 C 3,9 C 93 % 1001,8 hPa 0,0 l/m 0 min 0 min 18 W/m 9,7 km/h (2 Bft) 97,73 %
13.03.2019 17:20 5,2 C 4,4 C 3,9 C 93 % 1001,8 hPa 0,0 l/m 0 min 0 min 19 W/m 0,0 km/h (0 Bft) 97,96 %
13.03.2019 17:22 5,2 C 4,4 C 3,9 C 93 % 1001,9 hPa 0,0 l/m 0 min 0 min 17 W/m 9,7 km/h (2 Bft) 97,92 %
13.03.2019 17:24 5,3 C 4,4 C 3,9 C 93 % 1001,9 hPa 0,0 l/m 0 min 0 min 15 W/m 16,1 km/h (3 Bft) 95,65 %
13.03.2019 17:26 5,2 C 4,4 C 3,9 C 93 % 1001,9 hPa 0,0 l/m 0 min 0 min 14 W/m 16,1 km/h (3 Bft) 97,87 %
13.03.2019 17:28 5,2 C 4,4 C 3,9 C 93 % 1001,9 hPa 0,0 l/m 0 min 0 min 17 W/m 9,7 km/h (2 Bft) 97,87 %
13.03.2019 17:30 5,2 C 4,4 C 3,9 C 93 % 1001,9 hPa 0,0 l/m 0 min 0 min 25 W/m 9,7 km/h (2 Bft) 97,87 %
13.03.2019 17:32 5,2 C 4,4 C 3,9 C 93 % 1002,0 hPa 0,0 l/m 0 min 0 min 35 W/m 12,9 km/h (3 Bft) 95,74 %
13.03.2019 17:34 5,2 C 4,4 C 3,9 C 94 % 1001,9 hPa 0,0 l/m 0 min 0 min 46 W/m 16,1 km/h (3 Bft) 97,83 %
13.03.2019 17:36 5,2 C 4,4 C 3,9 C 94 % 1002,0 hPa 0,0 l/m 0 min 0 min 53 W/m 6,4 km/h (2 Bft) 97,87 %
13.03.2019 17:38 5,2 C 4,4 C 3,9 C 94 % 1002,0 hPa 0,0 l/m 0 min 0 min 59 W/m 3,2 km/h (1 Bft) 96,30 %
13.03.2019 17:40 5,2 C 4,4 C 3,9 C 94 % 1002,0 hPa 0,0 l/m 2 min 0 min 66 W/m 9,7 km/h (2 Bft) 97,87 %
13.03.2019 17:42 5,2 C 4,4 C 3,9 C 94 % 1002,0 hPa 0,0 l/m 0 min 0 min 56 W/m 6,4 km/h (2 Bft) 95,65 %
13.03.2019 17:44 5,2 C 4,4 C 3,9 C 94 % 1002,0 hPa 0,0 l/m 0 min 0 min 42 W/m 3,2 km/h (1 Bft) 97,37 %
13.03.2019 17:46 5,2 C 4,4 C 3,9 C 94 % 1002,1 hPa 0,0 l/m 0 min 0 min 25 W/m 16,1 km/h (3 Bft) 95,74 %
13.03.2019 17:48 5,2 C 4,4 C 3,9 C 94 % 1002,2 hPa 0,0 l/m 0 min 2 min 14 W/m 6,4 km/h (2 Bft) 97,96 %
13.03.2019 17:50 5,2 C 4,4 C 3,9 C 94 % 1002,3 hPa 0,0 l/m 0 min 2 min 12 W/m 3,2 km/h (1 Bft) 95,74 %
13.03.2019 17:52 5,3 C 4,4 C 3,9 C 94 % 1002,3 hPa 0,2 l/m 0 min 2 min 12 W/m 0,0 km/h (0 Bft) 95,74 %
13.03.2019 17:54 5,3 C 4,4 C 3,9 C 94 % 1002,3 hPa 0,0 l/m 0 min 2 min 13 W/m 6,4 km/h (2 Bft) 97,87 %
13.03.2019 17:56 5,3 C 4,4 C 3,9 C 94 % 1002,4 hPa 0,0 l/m 0 min 2 min 8 W/m 12,9 km/h (3 Bft) 95,74 %
13.03.2019 17:58 5,3 C 4,4 C 3,9 C 94 % 1002,4 hPa 0,0 l/m 0 min 0 min 7 W/m 6,4 km/h (2 Bft) 93,48 %
13.03.2019 18:00 5,3 C 4,4 C 3,9 C 94 % 1002,4 hPa 0,0 l/m 0 min 2 min 9 W/m 6,4 km/h (2 Bft) 95,74 %
13.03.2019 18:02 5,3 C 4,4 C 3,9 C 94 % 1002,3 hPa 0,0 l/m 0 min 0 min 12 W/m 3,2 km/h (1 Bft) 96,30 %
13.03.2019 18:04 5,3 C 4,4 C 3,9 C 95 % 1002,2 hPa 0,0 l/m 0 min 0 min 9 W/m 0,0 km/h (0 Bft) 94,74 %
13.03.2019 18:08 5,4 C 4,4 C 3,9 C 95 % 1002,3 hPa 0,0 l/m 0 min 0 min 7 W/m 3,2 km/h (1 Bft) 94,62 %
13.03.2019 18:10 5,4 C 4,4 C 3,9 C 95 % 1002,3 hPa 0,0 l/m 0 min 0 min 7 W/m 3,2 km/h (1 Bft) 93,62 %
13.03.2019 18:12 5,4 C 4,4 C 3,9 C 95 % 1002,4 hPa 0,0 l/m 0 min 0 min 5 W/m 3,2 km/h (1 Bft) 93,62 %
13.03.2019 18:14 5,4 C 4,4 C 3,9 C 95 % 1002,3 hPa 0,0 l/m 0 min 0 min 5 W/m 3,2 km/h (1 Bft) 95,92 %
13.03.2019 18:16 5,4 C 4,4 C 3,9 C 95 % 1002,3 hPa 0,0 l/m 0 min 2 min 5 W/m 3,2 km/h (1 Bft) 93,62 %
13.03.2019 18:18 5,4 C 4,4 C 4,4 C 95 % 1002,4 hPa 0,0 l/m 0 min 0 min 1 W/m 3,2 km/h (1 Bft) 95,74 %
13.03.2019 18:20 5,4 C 5,0 C 4,4 C 95 % 1002,5 hPa 0,0 l/m 0 min 0 min 0 W/m 9,7 km/h (2 Bft) 93,62 %
13.03.2019 18:22 5,4 C 5,0 C 4,4 C 95 % 1002,5 hPa 0,0 l/m 0 min 2 min 0 W/m 9,7 km/h (2 Bft) 95,65 %
13.03.2019 18:24 5,5 C 5,0 C 4,4 C 95 % 1002,4 hPa 0,0 l/m 0 min 2 min 0 W/m 19,3 km/h (3 Bft) 91,49 %
13.03.2019 18:26 5,6 C 5,0 C 4,4 C 95 % 1002,5 hPa 0,0 l/m 0 min 2 min 0 W/m 19,3 km/h (3 Bft) 95,74 %
13.03.2019 18:28 5,6 C 5,0 C 4,4 C 95 % 1002,5 hPa 0,2 l/m 0 min 2 min 0 W/m 22,5 km/h (4 Bft) 96,23 %
13.03.2019 18:30 5,7 C 5,0 C 4,4 C 95 % 1002,4 hPa 0,0 l/m 0 min 2 min 0 W/m 9,7 km/h (2 Bft) 94,74 %
13.03.2019 18:32 5,7 C 5,0 C 4,4 C 95 % 1002,5 hPa 0,0 l/m 0 min 2 min 0 W/m 29,0 km/h (5 Bft) 95,74 %
13.03.2019 18:34 5,7 C 4,4 C 4,4 C 95 % 1002,4 hPa 0,2 l/m 0 min 2 min 0 W/m 41,8 km/h (6 Bft) 93,62 %
13.03.2019 18:36 5,7 C 4,4 C 3,9 C 95 % 1002,6 hPa 0,0 l/m 0 min 2 min 0 W/m 29,0 km/h (5 Bft) 93,88 %
13.03.2019 18:38 5,7 C 4,4 C 3,9 C 95 % 1002,6 hPa 0,0 l/m 0 min 2 min 0 W/m 19,3 km/h (3 Bft) 95,74 %
13.03.2019 18:40 5,7 C 4,4 C 3,9 C 95 % 1002,6 hPa 0,2 l/m 0 min 2 min 0 W/m 35,4 km/h (5 Bft) 95,74 %
13.03.2019 18:42 5,7 C 4,4 C 3,9 C 95 % 1002,7 hPa 0,0 l/m 0 min 2 min 0 W/m 22,5 km/h (4 Bft) 93,62 %
13.03.2019 18:44 5,7 C 4,4 C 3,9 C 95 % 1002,8 hPa 0,4 l/m 0 min 2 min 0 W/m 19,3 km/h (3 Bft) 93,62 %
13.03.2019 18:46 5,7 C 4,4 C 3,9 C 95 % 1002,5 hPa 0,0 l/m 0 min 2 min 0 W/m 12,9 km/h (3 Bft) 95,65 %
13.03.2019 18:48 5,7 C 4,4 C 3,9 C 95 % 1002,7 hPa 0,2 l/m 0 min 2 min 0 W/m 12,9 km/h (3 Bft) 98,15 %
13.03.2019 18:50 5,7 C 4,4 C 3,9 C 95 % 1002,8 hPa 0,0 l/m 0 min 0 min 0 W/m 9,7 km/h (2 Bft) 97,37 %
13.03.2019 18:52 5,7 C 4,4 C 3,9 C 95 % 1002,9 hPa 0,0 l/m 0 min 0 min 0 W/m 12,9 km/h (3 Bft) 97,87 %
13.03.2019 18:54 5,7 C 4,4 C 3,9 C 95 % 1003,0 hPa 0,0 l/m 0 min 0 min 0 W/m 9,7 km/h (2 Bft) 97,96 %
13.03.2019 18:56 5,7 C 4,4 C 3,9 C 95 % 1003,0 hPa 0,0 l/m 0 min 0 min 0 W/m 9,7 km/h (2 Bft) 100,00 %
13.03.2019 18:58 5,7 C 5,0 C 4,4 C 95 % 1003,1 hPa 0,0 l/m 0 min 0 min 0 W/m 12,9 km/h (3 Bft) 100,00 %
13.03.2019 19:00 5,7 C 5,0 C 4,4 C 95 % 1003,0 hPa 0,0 l/m 0 min 2 min 0 W/m 6,4 km/h (2 Bft) 100,00 %
13.03.2019 19:02 5,7 C 5,0 C 4,4 C 95 % 1003,0 hPa 0,0 l/m 0 min 2 min 0 W/m 9,7 km/h (2 Bft) 97,87 %
13.03.2019 19:04 5,7 C 5,0 C 4,4 C 95 % 1003,0 hPa 0,0 l/m 0 min 2 min 0 W/m 9,7 km/h (2 Bft) 100,00 %
13.03.2019 19:06 5,8 C 5,0 C 4,4 C 95 % 1003,1 hPa 0,0 l/m 0 min 2 min 0 W/m 16,1 km/h (3 Bft) 100,00 %
13.03.2019 19:08 5,8 C 5,0 C 4,4 C 95 % 1003,0 hPa 0,0 l/m 0 min 2 min 0 W/m 22,5 km/h (4 Bft) 100,00 %
13.03.2019 19:10 5,8 C 5,0 C 4,4 C 95 % 1003,0 hPa 0,0 l/m 0 min 2 min 0 W/m 9,7 km/h (2 Bft) 100,00 %
13.03.2019 19:12 5,8 C 5,0 C 4,4 C 95 % 1003,1 hPa 0,0 l/m 0 min 0 min 0 W/m 22,5 km/h (4 Bft) 100,00 %
13.03.2019 19:14 5,9 C 5,0 C 4,4 C 95 % 1003,1 hPa 0,0 l/m 0 min 0 min 0 W/m 6,4 km/h (2 Bft) 100,00 %
13.03.2019 19:16 5,9 C 5,0 C 4,4 C 95 % 1003,1 hPa 0,0 l/m 0 min 0 min 0 W/m 9,7 km/h (2 Bft) 100,00 %
13.03.2019 19:18 5,9 C 5,0 C 4,4 C 95 % 1003,2 hPa 0,0 l/m 0 min 2 min 0 W/m 16,1 km/h (3 Bft) 100,00 %
13.03.2019 19:20 5,9 C 5,0 C 4,4 C 95 % 1003,3 hPa 0,0 l/m 0 min 2 min 0 W/m 16,1 km/h (3 Bft) 100,00 %
13.03.2019 19:22 5,9 C 5,0 C 4,4 C 95 % 1003,3 hPa 0,0 l/m 0 min 0 min 0 W/m 9,7 km/h (2 Bft) 97,87 %
13.03.2019 19:24 5,9 C 5,0 C 4,4 C 95 % 1003,4 hPa 0,0 l/m 0 min 0 min 0 W/m 6,4 km/h (2 Bft) 100,00 %
13.03.2019 19:26 5,9 C 5,0 C 4,4 C 95 % 1003,5 hPa 0,0 l/m 0 min 0 min 0 W/m 6,4 km/h (2 Bft) 100,00 %
13.03.2019 19:28 5,9 C 5,0 C 4,4 C 95 % 1003,5 hPa 0,0 l/m 0 min 0 min 0 W/m 12,9 km/h (3 Bft) 100,00 %
13.03.2019 19:30 5,9 C 5,0 C 4,4 C 95 % 1003,5 hPa 0,0 l/m 0 min 2 min 0 W/m 6,4 km/h (2 Bft) 100,00 %
13.03.2019 19:32 5,9 C 5,0 C 4,4 C 95 % 1003,5 hPa 0,0 l/m 0 min 0 min 0 W/m 12,9 km/h (3 Bft) 100,00 %
13.03.2019 19:34 5,9 C 5,0 C 4,4 C 95 % 1003,7 hPa 0,0 l/m 0 min 0 min 0 W/m 29,0 km/h (5 Bft) 100,00 %
13.03.2019 19:36 5,9 C 5,0 C 4,4 C 95 % 1003,6 hPa 0,0 l/m 0 min 2 min 0 W/m 16,1 km/h (3 Bft) 100,00 %
13.03.2019 19:38 5,9 C 5,0 C 4,4 C 95 % 1003,6 hPa 0,0 l/m 0 min 2 min 0 W/m 32,2 km/h (5 Bft) 100,00 %
13.03.2019 19:40 5,9 C 4,4 C 4,4 C 95 % 1003,8 hPa 0,0 l/m 0 min 2 min 0 W/m 12,9 km/h (3 Bft) 100,00 %
13.03.2019 19:42 5,9 C 4,4 C 3,9 C 95 % 1003,8 hPa 0,0 l/m 0 min 2 min 0 W/m 12,9 km/h (3 Bft) 100,00 %
13.03.2019 19:44 5,9 C 4,4 C 3,9 C 95 % 1003,8 hPa 0,0 l/m 0 min 2 min 0 W/m 12,9 km/h (3 Bft) 100,00 %
13.03.2019 19:46 5,9 C 4,4 C 3,9 C 95 % 1003,8 hPa 0,0 l/m 0 min 0 min 0 W/m 12,9 km/h (3 Bft) 100,00 %
13.03.2019 19:48 5,8 C 4,4 C 3,9 C 95 % 1003,8 hPa 0,0 l/m 0 min 2 min 0 W/m 9,7 km/h (2 Bft) 100,00 %
13.03.2019 19:50 5,8 C 4,4 C 3,9 C 95 % 1003,9 hPa 0,0 l/m 0 min 2 min 0 W/m 29,0 km/h (5 Bft) 100,00 %
13.03.2019 19:52 5,8 C 4,4 C 3,9 C 95 % 1004,0 hPa 0,0 l/m 0 min 2 min 0 W/m 12,9 km/h (3 Bft) 97,83 %
13.03.2019 19:54 5,8 C 4,4 C 3,9 C 95 % 1004,0 hPa 0,0 l/m 0 min 2 min 0 W/m 16,1 km/h (3 Bft) 100,00 %
13.03.2019 19:56 5,8 C 4,4 C 3,9 C 95 % 1004,1 hPa 0,0 l/m 0 min 0 min 0 W/m 16,1 km/h (3 Bft) 97,96 %
13.03.2019 19:58 5,8 C 4,4 C 3,9 C 94 % 1004,2 hPa 0,0 l/m 0 min 0 min 0 W/m 12,9 km/h (3 Bft) 100,00 %
13.03.2019 20:00 5,8 C 4,4 C 3,9 C 94 % 1004,2 hPa 0,0 l/m 0 min 0 min 0 W/m 9,7 km/h (2 Bft) 97,87 %
13.03.2019 20:02 5,8 C 4,4 C 3,9 C 95 % 1004,2 hPa 0,0 l/m 0 min 0 min 0 W/m 22,5 km/h (4 Bft) 97,87 %
13.03.2019 20:04 5,7 C 4,4 C 3,9 C 95 % 1004,2 hPa 0,0 l/m 0 min 0 min 0 W/m 12,9 km/h (3 Bft) 100,00 %
13.03.2019 20:06 5,7 C 4,4 C 3,9 C 94 % 1004,2 hPa 0,0 l/m 0 min 0 min 0 W/m 16,1 km/h (3 Bft) 100,00 %
13.03.2019 20:08 5,7 C 4,4 C 3,9 C 94 % 1004,3 hPa 0,0 l/m 0 min 0 min 0 W/m 16,1 km/h (3 Bft) 100,00 %
13.03.2019 20:10 5,7 C 4,4 C 3,9 C 94 % 1004,3 hPa 0,0 l/m 0 min 0 min 0 W/m 12,9 km/h (3 Bft) 100,00 %
13.03.2019 20:12 5,7 C 4,4 C 3,9 C 94 % 1004,3 hPa 0,0 l/m 0 min 0 min 0 W/m 19,3 km/h (3 Bft) 95,74 %
13.03.2019 20:14 5,7 C 4,4 C 3,9 C 94 % 1004,4 hPa 0,0 l/m 0 min 0 min 0 W/m 16,1 km/h (3 Bft) 100,00 %
13.03.2019 20:16 5,7 C 4,4 C 3,9 C 94 % 1004,5 hPa 0,0 l/m 0 min 0 min 0 W/m 19,3 km/h (3 Bft) 100,00 %
13.03.2019 20:18 5,7 C 4,4 C 3,9 C 94 % 1004,5 hPa 0,0 l/m 0 min 2 min 0 W/m 22,5 km/h (4 Bft) 97,83 %
13.03.2019 20:20 5,6 C 4,4 C 3,9 C 94 % 1004,5 hPa 0,0 l/m 0 min 2 min 0 W/m 12,9 km/h (3 Bft) 100,00 %
13.03.2019 20:22 5,6 C 4,4 C 3,9 C 94 % 1004,6 hPa 0,0 l/m 0 min 2 min 0 W/m 19,3 km/h (3 Bft) 97,87 %
13.03.2019 20:24 5,6 C 4,4 C 3,9 C 94 % 1004,6 hPa 0,0 l/m 0 min 2 min 0 W/m 16,1 km/h (3 Bft) 100,00 %
13.03.2019 20:26 5,6 C 4,4 C 3,9 C 94 % 1004,7 hPa 0,0 l/m 0 min 0 min 0 W/m 16,1 km/h (3 Bft) 100,00 %
13.03.2019 20:28 5,6 C 4,4 C 3,9 C 94 % 1004,7 hPa 0,0 l/m 0 min 0 min 0 W/m 16,1 km/h (3 Bft) 100,00 %
13.03.2019 20:30 5,6 C 4,4 C 3,9 C 94 % 1004,8 hPa 0,0 l/m 0 min 0 min 0 W/m 16,1 km/h (3 Bft) 100,00 %
13.03.2019 20:32 5,6 C 4,4 C 3,9 C 94 % 1004,8 hPa 0,0 l/m 0 min 0 min 0 W/m 6,4 km/h (2 Bft) 100,00 %
13.03.2019 20:34 5,6 C 4,4 C 3,9 C 94 % 1004,8 hPa 0,0 l/m 0 min 2 min 0 W/m 22,5 km/h (4 Bft) 97,87 %
13.03.2019 20:36 5,6 C 4,4 C 3,9 C 94 % 1004,9 hPa 0,0 l/m 0 min 0 min 0 W/m 12,9 km/h (3 Bft) 97,87 %
13.03.2019 20:38 5,6 C 4,4 C 3,9 C 93 % 1004,9 hPa 0,0 l/m 0 min 0 min 0 W/m 9,7 km/h (2 Bft) 98,11 %
13.03.2019 20:40 5,5 C 4,4 C 3,9 C 93 % 1004,9 hPa 0,0 l/m 0 min 0 min 0 W/m 6,4 km/h (2 Bft) 100,00 %
13.03.2019 20:42 5,5 C 4,4 C 3,9 C 93 % 1004,9 hPa 0,0 l/m 0 min 0 min 0 W/m 9,7 km/h (2 Bft) 100,00 %
13.03.2019 20:44 5,5 C 4,4 C 3,9 C 93 % 1004,9 hPa 0,0 l/m 0 min 0 min 0 W/m 9,7 km/h (2 Bft) 93,62 %
13.03.2019 20:46 5,5 C 4,4 C 3,9 C 93 % 1004,9 hPa 0,0 l/m 0 min 0 min 0 W/m 9,7 km/h (2 Bft) 93,62 %
13.03.2019 20:48 5,5 C 4,4 C 3,9 C 93 % 1005,0 hPa 0,0 l/m 0 min 0 min 0 W/m 12,9 km/h (3 Bft) 93,62 %
13.03.2019 20:50 5,5 C 4,4 C 3,9 C 93 % 1005,0 hPa 0,0 l/m 0 min 0 min 0 W/m 16,1 km/h (3 Bft) 93,48 %
13.03.2019 20:52 5,4 C 4,4 C 3,9 C 93 % 1005,0 hPa 0,0 l/m 0 min 0 min 0 W/m 9,7 km/h (2 Bft) 91,49 %
13.03.2019 20:54 5,4 C 4,4 C 3,9 C 93 % 1005,0 hPa 0,0 l/m 0 min 0 min 0 W/m 12,9 km/h (3 Bft) 91,49 %
13.03.2019 20:56 5,4 C 4,4 C 3,9 C 93 % 1005,1 hPa 0,0 l/m 0 min 0 min 0 W/m 22,5 km/h (4 Bft) 93,62 %
13.03.2019 20:58 5,4 C 4,4 C 3,9 C 93 % 1005,1 hPa 0,0 l/m 0 min 0 min 0 W/m 22,5 km/h (4 Bft) 93,62 %
13.03.2019 21:00 5,4 C 4,4 C 3,9 C 93 % 1005,1 hPa 0,0 l/m 0 min 2 min 0 W/m 9,7 km/h (2 Bft) 91,30 %
13.03.2019 21:02 5,4 C 4,4 C 3,9 C 92 % 1005,2 hPa 0,0 l/m 0 min 2 min 0 W/m 6,4 km/h (2 Bft) 93,62 %
13.03.2019 21:04 5,4 C 4,4 C 3,9 C 92 % 1005,1 hPa 0,0 l/m 0 min 2 min 0 W/m 19,3 km/h (3 Bft) 93,62 %
13.03.2019 21:06 5,4 C 4,4 C 3,9 C 92 % 1005,2 hPa 0,0 l/m 0 min 0 min 0 W/m 9,7 km/h (2 Bft) 91,49 %
13.03.2019 21:08 5,4 C 4,4 C 3,9 C 92 % 1005,2 hPa 0,0 l/m 0 min 0 min 0 W/m 9,7 km/h (2 Bft) 93,62 %
13.03.2019 21:10 5,4 C 4,4 C 3,9 C 92 % 1005,2 hPa 0,0 l/m 0 min 0 min 0 W/m 22,5 km/h (4 Bft) 91,49 %
13.03.2019 21:12 5,4 C 4,4 C 3,9 C 92 % 1005,2 hPa 0,0 l/m 0 min 2 min 0 W/m 16,1 km/h (3 Bft) 93,48 %
13.03.2019 21:14 5,4 C 4,4 C 3,9 C 92 % 1005,2 hPa 0,0 l/m 0 min 0 min 0 W/m 9,7 km/h (2 Bft) 91,49 %
13.03.2019 21:16 5,5 C 4,4 C 3,9 C 92 % 1005,2 hPa 0,0 l/m 0 min 0 min 0 W/m 9,7 km/h (2 Bft) 95,74 %
13.03.2019 21:18 5,5 C 4,4 C 3,9 C 92 % 1005,3 hPa 0,0 l/m 0 min 0 min 0 W/m 16,1 km/h (3 Bft) 91,49 %
13.03.2019 21:20 5,5 C 4,4 C 3,9 C 92 % 1005,4 hPa 0,0 l/m 0 min 0 min 0 W/m 19,3 km/h (3 Bft) 93,62 %
13.03.2019 21:22 5,5 C 4,4 C 3,9 C 92 % 1005,3 hPa 0,0 l/m 0 min 0 min 0 W/m 35,4 km/h (5 Bft) 91,49 %
13.03.2019 21:24 5,5 C 5,0 C 3,9 C 92 % 1005,3 hPa 0,0 l/m 0 min 0 min 0 W/m 9,7 km/h (2 Bft) 95,65 %
13.03.2019 21:26 5,5 C 5,0 C 3,9 C 92 % 1005,4 hPa 0,0 l/m 0 min 0 min 0 W/m 16,1 km/h (3 Bft) 95,74 %
13.03.2019 21:28 5,6 C 5,0 C 3,9 C 92 % 1005,4 hPa 0,0 l/m 0 min 0 min 0 W/m 12,9 km/h (3 Bft) 95,74 %
13.03.2019 21:30 5,6 C 5,0 C 3,9 C 93 % 1005,4 hPa 0,0 l/m 0 min 0 min 0 W/m 9,7 km/h (2 Bft) 97,87 %
13.03.2019 21:32 5,6 C 5,0 C 3,9 C 93 % 1005,4 hPa 0,0 l/m 0 min 0 min 0 W/m 9,7 km/h (2 Bft) 97,87 %
13.03.2019 21:34 5,6 C 5,0 C 3,9 C 93 % 1005,5 hPa 0,0 l/m 0 min 0 min 0 W/m 19,3 km/h (3 Bft) 97,87 %
13.03.2019 21:36 5,6 C 5,0 C 3,9 C 93 % 1005,6 hPa 0,0 l/m 0 min 0 min 0 W/m 19,3 km/h (3 Bft) 97,83 %
13.03.2019 21:38 5,6 C 5,0 C 3,9 C 93 % 1005,6 hPa 0,0 l/m 0 min 0 min 0 W/m 16,1 km/h (3 Bft) 97,92 %
13.03.2019 21:40 5,6 C 5,0 C 3,9 C 93 % 1005,6 hPa 0,0 l/m 0 min 0 min 0 W/m 9,7 km/h (2 Bft) 97,14 %
13.03.2019 21:42 5,6 C 5,0 C 3,9 C 93 % 1005,6 hPa 0,0 l/m 0 min 0 min 0 W/m 9,7 km/h (2 Bft) 97,92 %
13.03.2019 21:44 5,6 C 5,0 C 3,9 C 93 % 1005,7 hPa 0,0 l/m 0 min 0 min 0 W/m 16,1 km/h (3 Bft) 97,87 %
13.03.2019 21:46 5,6 C 5,0 C 3,9 C 93 % 1005,6 hPa 0,0 l/m 0 min 0 min 0 W/m 22,5 km/h (4 Bft) 97,87 %
13.03.2019 21:48 5,6 C 5,6 C 3,9 C 93 % 1005,7 hPa 0,0 l/m 0 min 0 min 0 W/m 16,1 km/h (3 Bft) 97,87 %
13.03.2019 21:50 5,6 C 5,0 C 3,9 C 93 % 1005,6 hPa 0,0 l/m 0 min 0 min 0 W/m 9,7 km/h (2 Bft) 97,83 %
13.03.2019 21:52 5,6 C 5,0 C 3,9 C 92 % 1005,8 hPa 0,0 l/m 0 min 0 min 0 W/m 12,9 km/h (3 Bft) 100,00 %
13.03.2019 21:54 5,6 C 5,0 C 3,9 C 92 % 1005,8 hPa 0,0 l/m 0 min 0 min 0 W/m 12,9 km/h (3 Bft) 100,00 %
13.03.2019 21:56 5,6 C 5,0 C 3,9 C 93 % 1005,8 hPa 0,0 l/m 0 min 0 min 0 W/m 12,9 km/h (3 Bft) 100,00 %
13.03.2019 21:58 5,6 C 5,0 C 3,9 C 92 % 1005,8 hPa 0,0 l/m 0 min 0 min 0 W/m 16,1 km/h (3 Bft) 97,87 %
13.03.2019 22:00 5,7 C 5,0 C 4,4 C 92 % 1005,9 hPa 0,0 l/m 0 min 0 min 0 W/m 22,5 km/h (4 Bft) 100,00 %
13.03.2019 22:02 5,7 C 5,0 C 4,4 C 92 % 1005,9 hPa 0,0 l/m 0 min 0 min 0 W/m 22,5 km/h (4 Bft) 100,00 %
13.03.2019 22:04 5,6 C 5,0 C 4,4 C 92 % 1005,9 hPa 0,0 l/m 0 min 0 min 0 W/m 16,1 km/h (3 Bft) 100,00 %
13.03.2019 22:06 5,6 C 5,0 C 4,4 C 92 % 1006,0 hPa 0,0 l/m 0 min 0 min 0 W/m 22,5 km/h (4 Bft) 100,00 %
13.03.2019 22:08 5,6 C 5,0 C 4,4 C 92 % 1006,0 hPa 0,2 l/m 0 min 0 min 0 W/m 22,5 km/h (4 Bft) 97,22 %
13.03.2019 22:10 5,6 C 5,0 C 4,4 C 92 % 1006,1 hPa 0,0 l/m 0 min 0 min 0 W/m 12,9 km/h (3 Bft) 100,00 %
13.03.2019 22:12 5,6 C 5,0 C 4,4 C 92 % 1006,1 hPa 0,0 l/m 0 min 0 min 0 W/m 16,1 km/h (3 Bft) 100,00 %
13.03.2019 22:14 5,6 C 5,0 C 4,4 C 92 % 1006,1 hPa 0,0 l/m 0 min 0 min 0 W/m 9,7 km/h (2 Bft) 100,00 %
13.03.2019 22:16 5,6 C 5,0 C 4,4 C 92 % 1006,1 hPa 0,0 l/m 0 min 0 min 0 W/m 16,1 km/h (3 Bft) 100,00 %
13.03.2019 22:18 5,6 C 5,0 C 4,4 C 92 % 1006,1 hPa 0,0 l/m 0 min 0 min 0 W/m 29,0 km/h (5 Bft) 100,00 %
13.03.2019 22:20 5,6 C 5,0 C 4,4 C 92 % 1006,1 hPa 0,0 l/m 0 min 0 min 0 W/m 16,1 km/h (3 Bft) 100,00 %
13.03.2019 22:22 5,6 C 5,0 C 4,4 C 92 % 1006,1 hPa 0,0 l/m 0 min 0 min 0 W/m 16,1 km/h (3 Bft) 100,00 %
13.03.2019 22:24 5,6 C 5,0 C 4,4 C 92 % 1006,2 hPa 0,0 l/m 0 min 0 min 0 W/m 16,1 km/h (3 Bft) 97,83 %
13.03.2019 22:26 5,6 C 5,0 C 3,9 C 92 % 1006,2 hPa 0,0 l/m 0 min 0 min 0 W/m 12,9 km/h (3 Bft) 100,00 %
13.03.2019 22:28 5,6 C 5,0 C 3,9 C 92 % 1006,2 hPa 0,0 l/m 0 min 0 min 0 W/m 9,7 km/h (2 Bft) 100,00 %
13.03.2019 22:30 5,6 C 5,0 C 3,9 C 92 % 1006,2 hPa 0,0 l/m 0 min 0 min 0 W/m 9,7 km/h (2 Bft) 100,00 %
13.03.2019 22:32 5,6 C 5,0 C 3,9 C 92 % 1006,1 hPa 0,0 l/m 0 min 0 min 0 W/m 12,9 km/h (3 Bft) 97,87 %
13.03.2019 22:34 5,6 C 5,0 C 4,4 C 92 % 1006,1 hPa 0,0 l/m 0 min 0 min 0 W/m 22,5 km/h (4 Bft) 100,00 %
13.03.2019 22:36 5,6 C 5,0 C 4,4 C 92 % 1006,2 hPa 0,0 l/m 0 min 0 min 0 W/m 22,5 km/h (4 Bft) 100,00 %
13.03.2019 22:38 5,6 C 5,0 C 4,4 C 92 % 1006,2 hPa 0,0 l/m 0 min 0 min 0 W/m 12,9 km/h (3 Bft) 100,00 %
13.03.2019 22:40 5,6 C 5,0 C 4,4 C 92 % 1006,3 hPa 0,0 l/m 0 min 0 min 0 W/m 16,1 km/h (3 Bft) 100,00 %
13.03.2019 22:42 5,6 C 5,0 C 3,9 C 92 % 1006,4 hPa 0,0 l/m 0 min 0 min 0 W/m 16,1 km/h (3 Bft) 97,96 %
13.03.2019 22:44 5,6 C 5,0 C 3,9 C 92 % 1006,4 hPa 0,0 l/m 0 min 0 min 0 W/m 19,3 km/h (3 Bft) 100,00 %
13.03.2019 22:47 5,5 C 5,0 C 3,9 C 92 % 1006,4 hPa 0,0 l/m 0 min 0 min 0 W/m 19,3 km/h (3 Bft) 98,63 %
13.03.2019 22:50 5,5 C 5,0 C 3,9 C 92 % 1006,4 hPa 0,0 l/m 0 min 0 min 0 W/m 9,7 km/h (2 Bft) 100,00 %
13.03.2019 22:52 5,5 C 5,0 C 3,9 C 92 % 1006,5 hPa 0,0 l/m 0 min 0 min 0 W/m 16,1 km/h (3 Bft) 97,87 %
13.03.2019 22:54 5,5 C 5,0 C 3,9 C 92 % 1006,5 hPa 0,0 l/m 0 min 0 min 0 W/m 12,9 km/h (3 Bft) 97,87 %
13.03.2019 22:56 5,4 C 5,0 C 3,9 C 92 % 1006,5 hPa 0,0 l/m 0 min 0 min 0 W/m 16,1 km/h (3 Bft) 100,00 %
13.03.2019 22:58 5,4 C 5,0 C 3,9 C 92 % 1006,5 hPa 0,0 l/m 0 min 0 min 0 W/m 22,5 km/h (4 Bft) 100,00 %
13.03.2019 23:00 5,4 C 5,0 C 3,9 C 92 % 1006,5 hPa 0,0 l/m 0 min 0 min 0 W/m 9,7 km/h (2 Bft) 97,83 %
13.03.2019 23:02 5,4 C 5,0 C 3,9 C 92 % 1006,6 hPa 0,0 l/m 0 min 0 min 0 W/m 12,9 km/h (3 Bft) 97,87 %
13.03.2019 23:04 5,4 C 5,0 C 3,9 C 92 % 1006,7 hPa 0,0 l/m 0 min 0 min 0 W/m 16,1 km/h (3 Bft) 97,87 %
13.03.2019 23:06 5,4 C 5,0 C 4,4 C 92 % 1006,8 hPa 0,0 l/m 0 min 0 min 0 W/m 22,5 km/h (4 Bft) 97,87 %
13.03.2019 23:08 5,4 C 5,0 C 4,4 C 92 % 1006,7 hPa 0,0 l/m 0 min 0 min 0 W/m 12,9 km/h (3 Bft) 97,87 %
13.03.2019 23:10 5,4 C 5,0 C 3,9 C 92 % 1006,7 hPa 0,0 l/m 0 min 0 min 0 W/m 19,3 km/h (3 Bft) 97,87 %
13.03.2019 23:12 5,4 C 5,0 C 4,4 C 92 % 1006,8 hPa 0,0 l/m 0 min 0 min 0 W/m 12,9 km/h (3 Bft) 97,83 %
13.03.2019 23:14 5,4 C 5,0 C 4,4 C 92 % 1006,8 hPa 0,0 l/m 0 min 0 min 0 W/m 12,9 km/h (3 Bft) 97,87 %
13.03.2019 23:16 5,4 C 5,0 C 4,4 C 92 % 1006,8 hPa 0,0 l/m 0 min 0 min 0 W/m 16,1 km/h (3 Bft) 97,87 %
13.03.2019 23:18 5,4 C 5,0 C 4,4 C 91 % 1006,7 hPa 0,0 l/m 0 min 0 min 0 W/m 16,1 km/h (3 Bft) 97,87 %
13.03.2019 23:20 5,4 C 5,0 C 4,4 C 91 % 1006,8 hPa 0,0 l/m 0 min 0 min 0 W/m 19,3 km/h (3 Bft) 95,74 %
13.03.2019 23:22 5,4 C 5,0 C 4,4 C 91 % 1006,8 hPa 0,0 l/m 0 min 0 min 0 W/m 19,3 km/h (3 Bft) 95,74 %
13.03.2019 23:24 5,4 C 5,0 C 4,4 C 91 % 1007,0 hPa 0,0 l/m 0 min 0 min 0 W/m 16,1 km/h (3 Bft) 97,83 %
13.03.2019 23:26 5,4 C 5,0 C 4,4 C 91 % 1006,9 hPa 0,0 l/m 0 min 0 min 0 W/m 25,7 km/h (4 Bft) 97,87 %
13.03.2019 23:28 5,4 C 5,0 C 4,4 C 91 % 1007,0 hPa 0,0 l/m 0 min 0 min 0 W/m 16,1 km/h (3 Bft) 97,87 %
13.03.2019 23:30 5,5 C 5,0 C 4,4 C 91 % 1007,0 hPa 0,0 l/m 0 min 0 min 0 W/m 16,1 km/h (3 Bft) 93,62 %
13.03.2019 23:32 5,4 C 5,0 C 4,4 C 91 % 1007,0 hPa 0,0 l/m 0 min 0 min 0 W/m 12,9 km/h (3 Bft) 95,74 %
13.03.2019 23:34 5,5 C 5,0 C 4,4 C 91 % 1006,9 hPa 0,0 l/m 0 min 0 min 0 W/m 16,1 km/h (3 Bft) 95,74 %
13.03.2019 23:36 5,5 C 5,0 C 4,4 C 91 % 1007,0 hPa 0,0 l/m 0 min 0 min 0 W/m 16,1 km/h (3 Bft) 95,65 %
13.03.2019 23:38 5,5 C 5,0 C 4,4 C 91 % 1006,9 hPa 0,0 l/m 0 min 0 min 0 W/m 16,1 km/h (3 Bft) 93,62 %
13.03.2019 23:40 5,5 C 5,0 C 3,9 C 91 % 1007,0 hPa 0,0 l/m 0 min 0 min 0 W/m 16,1 km/h (3 Bft) 97,87 %
13.03.2019 23:42 5,5 C 5,0 C 3,9 C 91 % 1007,0 hPa 0,0 l/m 0 min 0 min 0 W/m 16,1 km/h (3 Bft) 95,74 %
13.03.2019 23:44 5,5 C 5,0 C 3,9 C 91 % 1007,0 hPa 0,0 l/m 0 min 0 min 0 W/m 9,7 km/h (2 Bft) 95,74 %
13.03.2019 23:46 5,4 C 5,0 C 3,9 C 90 % 1007,2 hPa 0,0 l/m 0 min 0 min 0 W/m 12,9 km/h (3 Bft) 95,74 %
13.03.2019 23:48 5,4 C 5,0 C 3,9 C 90 % 1007,0 hPa 0,0 l/m 0 min 0 min 0 W/m 6,4 km/h (2 Bft) 93,48 %
13.03.2019 23:50 5,4 C 5,0 C 3,9 C 90 % 1007,1 hPa 0,0 l/m 0 min 0 min 0 W/m 16,1 km/h (3 Bft) 95,74 %
13.03.2019 23:52 5,4 C 5,0 C 3,9 C 90 % 1007,1 hPa 0,0 l/m 0 min 0 min 0 W/m 12,9 km/h (3 Bft) 97,87 %
13.03.2019 23:54 5,4 C 5,0 C 3,9 C 90 % 1007,1 hPa 0,0 l/m 0 min 0 min 0 W/m 6,4 km/h (2 Bft) 97,87 %
13.03.2019 23:56 5,4 C 5,0 C 4,4 C 90 % 1007,1 hPa 0,0 l/m 0 min 0 min 0 W/m 12,9 km/h (3 Bft) 97,87 %
13.03.2019 23:58 5,4 C 5,0 C 4,4 C 90 % 1007,1 hPa 0,0 l/m 0 min 0 min 0 W/m 22,5 km/h (4 Bft) 97,87 %
_ Min-Zeit 00:00 00:00 00:00 07:22 14:52 - - - - 17:20 05:12
Minimum _ 4,8 C 3,9 C 3,3 C 80 % 1000,6 hPa - - - - 0,0 km/h (0 Bft) 90,91 %
_ Max-Zeit 12:58 12:18 12:18 18:04 23:46 16:36 10:54 14:20 12:20 08:42 00:02
Maximum _ 7,7 C 8,3 C 7,8 C 95 % 1007,2 hPa 0,6 l/m 2 min 5 min 357 W/m 70,8 km/h
S (8 Bft)
100,00 %
Durchschnitt _ 5,9 C 5,2 C 4,6 C 88 % 1002,7 hPa #8,2 l/m #20 min. #7:53 h 95 W/m 24,8 km/h (4 Bft) 97,55 %
© 2019 W. Hausmann